Wetterdaten: Freitag, 26.09.2014
Datum Zeit Temp. Aussen +5cm Feuchte Auss Luftdruck Regen Sonnenschein Regendauer Solar Windben
26.09.2014 00:00 13,8 C 12,2 C 83 % 1021,8 hPa 0,0 l/m 0 min 0 min 0 W/m 8,4 km/h (2 Bft)
26.09.2014 00:02 13,8 C 12,2 C 83 % 1021,8 hPa 0,0 l/m 0 min 0 min 0 W/m 18,8 km/h (3 Bft)
26.09.2014 00:05 13,8 C 12,2 C 83 % 1021,8 hPa 0,0 l/m 0 min 0 min 0 W/m 10,5 km/h (2 Bft)
26.09.2014 00:06 13,8 C 12,2 C 83 % 1021,8 hPa 0,0 l/m 0 min 0 min 0 W/m 12,6 km/h (3 Bft)
26.09.2014 00:08 13,7 C 12,2 C 83 % 1021,8 hPa 0,0 l/m 0 min 0 min 0 W/m 8,4 km/h (2 Bft)
26.09.2014 00:10 13,7 C 12,2 C 83 % 1021,8 hPa 0,0 l/m 0 min 0 min 0 W/m 8,4 km/h (2 Bft)
26.09.2014 00:12 13,7 C 12,2 C 83 % 1021,8 hPa 0,0 l/m 0 min 0 min 0 W/m 8,4 km/h (2 Bft)
26.09.2014 00:14 13,7 C 12,2 C 83 % 1021,8 hPa 0,0 l/m 0 min 0 min 0 W/m 10,5 km/h (2 Bft)
26.09.2014 00:16 13,7 C 12,2 C 83 % 1021,8 hPa 0,0 l/m 0 min 0 min 0 W/m 10,5 km/h (2 Bft)
26.09.2014 00:18 13,7 C 12,2 C 83 % 1021,9 hPa 0,0 l/m 0 min 0 min 0 W/m 12,6 km/h (3 Bft)
26.09.2014 00:20 13,7 C 12,2 C 83 % 1021,9 hPa 0,0 l/m 0 min 0 min 0 W/m 10,5 km/h (2 Bft)
26.09.2014 00:22 13,7 C 12,2 C 83 % 1021,9 hPa 0,0 l/m 0 min 0 min 0 W/m 8,4 km/h (2 Bft)
26.09.2014 00:24 13,7 C 12,2 C 83 % 1021,9 hPa 0,0 l/m 0 min 0 min 0 W/m 8,4 km/h (2 Bft)
26.09.2014 00:26 13,6 C 12,2 C 83 % 1021,9 hPa 0,0 l/m 0 min 0 min 0 W/m 10,5 km/h (2 Bft)
26.09.2014 00:28 13,6 C 12,2 C 83 % 1021,9 hPa 0,0 l/m 0 min 0 min 0 W/m 14,6 km/h (3 Bft)
26.09.2014 00:30 13,6 C 12,2 C 83 % 1021,9 hPa 0,0 l/m 0 min 0 min 0 W/m 16,7 km/h (3 Bft)
26.09.2014 00:32 13,6 C 12,2 C 83 % 1021,8 hPa 0,0 l/m 0 min 0 min 0 W/m 16,7 km/h (3 Bft)
26.09.2014 00:34 13,6 C 12,2 C 83 % 1021,8 hPa 0,0 l/m 0 min 0 min 0 W/m 12,6 km/h (3 Bft)
26.09.2014 00:36 13,6 C 12,2 C 83 % 1021,8 hPa 0,0 l/m 0 min 0 min 0 W/m 12,6 km/h (3 Bft)
26.09.2014 00:38 13,6 C 12,2 C 83 % 1021,7 hPa 0,0 l/m 0 min 0 min 0 W/m 14,6 km/h (3 Bft)
26.09.2014 00:40 13,6 C 11,7 C 83 % 1021,7 hPa 0,0 l/m 0 min 0 min 0 W/m 14,6 km/h (3 Bft)
26.09.2014 00:42 13,5 C 11,7 C 83 % 1021,7 hPa 0,0 l/m 0 min 0 min 0 W/m 14,6 km/h (3 Bft)
26.09.2014 00:44 13,5 C 11,7 C 83 % 1021,7 hPa 0,0 l/m 0 min 0 min 0 W/m 14,6 km/h (3 Bft)
26.09.2014 00:46 13,5 C 11,7 C 83 % 1021,7 hPa 0,0 l/m 0 min 0 min 0 W/m 12,6 km/h (3 Bft)
26.09.2014 00:48 13,4 C 11,7 C 83 % 1021,6 hPa 0,0 l/m 0 min 0 min 0 W/m 10,5 km/h (2 Bft)
26.09.2014 00:50 13,4 C 11,7 C 83 % 1021,6 hPa 0,0 l/m 0 min 0 min 0 W/m 14,6 km/h (3 Bft)
26.09.2014 00:52 13,4 C 11,7 C 83 % 1021,5 hPa 0,0 l/m 0 min 0 min 0 W/m 10,5 km/h (2 Bft)
26.09.2014 00:54 13,4 C 11,7 C 83 % 1021,5 hPa 0,0 l/m 0 min 0 min 0 W/m 12,6 km/h (3 Bft)
26.09.2014 00:56 13,4 C 11,7 C 83 % 1021,4 hPa 0,0 l/m 0 min 0 min 0 W/m 10,5 km/h (2 Bft)
26.09.2014 00:58 13,3 C 11,7 C 83 % 1021,5 hPa 0,0 l/m 0 min 0 min 0 W/m 12,6 km/h (3 Bft)
26.09.2014 01:00 13,3 C 11,7 C 83 % 1021,5 hPa 0,0 l/m 0 min 0 min 0 W/m 14,6 km/h (3 Bft)
26.09.2014 01:02 13,3 C 11,7 C 83 % 1021,6 hPa 0,0 l/m 0 min 0 min 0 W/m 14,6 km/h (3 Bft)
26.09.2014 01:04 13,3 C 11,7 C 83 % 1021,5 hPa 0,0 l/m 0 min 0 min 0 W/m 12,6 km/h (3 Bft)
26.09.2014 01:06 13,2 C 11,7 C 83 % 1021,6 hPa 0,0 l/m 0 min 0 min 0 W/m 14,6 km/h (3 Bft)
26.09.2014 01:08 13,2 C 11,7 C 83 % 1021,6 hPa 0,0 l/m 0 min 0 min 0 W/m 12,6 km/h (3 Bft)
26.09.2014 01:10 13,2 C 11,7 C 83 % 1021,6 hPa 0,0 l/m 0 min 0 min 0 W/m 12,6 km/h (3 Bft)
26.09.2014 01:12 13,2 C 11,7 C 84 % 1021,5 hPa 0,0 l/m 0 min 0 min 0 W/m 12,6 km/h (3 Bft)
26.09.2014 01:14 13,1 C 11,7 C 84 % 1021,5 hPa 0,0 l/m 0 min 0 min 0 W/m 14,6 km/h (3 Bft)
26.09.2014 01:16 13,1 C 11,7 C 84 % 1021,4 hPa 0,0 l/m 0 min 0 min 0 W/m 14,6 km/h (3 Bft)
26.09.2014 01:18 13,1 C 11,7 C 84 % 1021,3 hPa 0,0 l/m 0 min 0 min 0 W/m 12,6 km/h (3 Bft)
26.09.2014 01:20 13,1 C 11,7 C 84 % 1021,4 hPa 0,0 l/m 0 min 0 min 0 W/m 14,6 km/h (3 Bft)
26.09.2014 01:22 13,1 C 11,7 C 84 % 1021,4 hPa 0,0 l/m 0 min 0 min 0 W/m 14,6 km/h (3 Bft)
26.09.2014 01:24 13,0 C 11,7 C 84 % 1021,4 hPa 0,0 l/m 0 min 0 min 0 W/m 12,6 km/h (3 Bft)
26.09.2014 01:26 13,0 C 11,7 C 84 % 1021,4 hPa 0,0 l/m 0 min 0 min 0 W/m 12,6 km/h (3 Bft)
26.09.2014 01:28 12,9 C 11,7 C 84 % 1021,4 hPa 0,0 l/m 0 min 0 min 0 W/m 14,6 km/h (3 Bft)
26.09.2014 01:30 12,9 C 11,7 C 84 % 1021,5 hPa 0,0 l/m 0 min 0 min 0 W/m 14,6 km/h (3 Bft)
26.09.2014 01:32 12,9 C 11,7 C 84 % 1021,5 hPa 0,0 l/m 0 min 0 min 0 W/m 16,7 km/h (3 Bft)
26.09.2014 01:34 12,9 C 11,7 C 84 % 1021,5 hPa 0,0 l/m 0 min 0 min 0 W/m 16,7 km/h (3 Bft)
26.09.2014 01:36 12,9 C 11,1 C 85 % 1021,5 hPa 0,0 l/m 0 min 0 min 0 W/m 14,6 km/h (3 Bft)
26.09.2014 01:38 12,9 C 11,1 C 85 % 1021,6 hPa 0,0 l/m 0 min 0 min 0 W/m 14,6 km/h (3 Bft)
26.09.2014 01:40 12,8 C 11,1 C 85 % 1021,5 hPa 0,0 l/m 0 min 0 min 0 W/m 14,6 km/h (3 Bft)
26.09.2014 01:42 12,8 C 11,1 C 85 % 1021,5 hPa 0,0 l/m 0 min 0 min 0 W/m 14,6 km/h (3 Bft)
26.09.2014 01:44 12,8 C 11,1 C 85 % 1021,6 hPa 0,0 l/m 0 min 0 min 0 W/m 14,6 km/h (3 Bft)
26.09.2014 01:46 12,8 C 11,1 C 85 % 1021,5 hPa 0,0 l/m 0 min 0 min 0 W/m 12,6 km/h (3 Bft)
26.09.2014 01:48 12,8 C 11,1 C 85 % 1021,5 hPa 0,0 l/m 0 min 0 min 0 W/m 18,8 km/h (3 Bft)
26.09.2014 01:50 12,8 C 11,1 C 85 % 1021,5 hPa 0,0 l/m 0 min 0 min 0 W/m 14,6 km/h (3 Bft)
26.09.2014 01:52 12,7 C 11,1 C 85 % 1021,6 hPa 0,0 l/m 0 min 0 min 0 W/m 10,5 km/h (2 Bft)
26.09.2014 01:54 12,7 C 11,7 C 85 % 1021,6 hPa 0,0 l/m 0 min 0 min 0 W/m 12,6 km/h (3 Bft)
26.09.2014 01:56 12,7 C 11,7 C 86 % 1021,6 hPa 0,0 l/m 0 min 0 min 0 W/m 16,7 km/h (3 Bft)
26.09.2014 01:58 12,7 C 11,7 C 85 % 1021,6 hPa 0,0 l/m 0 min 0 min 0 W/m 12,6 km/h (3 Bft)
26.09.2014 02:00 12,7 C 11,7 C 86 % 1021,5 hPa 0,0 l/m 0 min 0 min 0 W/m 12,6 km/h (3 Bft)
26.09.2014 02:02 12,7 C 11,7 C 86 % 1021,6 hPa 0,0 l/m 0 min 0 min 0 W/m 16,7 km/h (3 Bft)
26.09.2014 02:04 12,7 C 11,7 C 86 % 1021,6 hPa 0,0 l/m 0 min 0 min 0 W/m 16,7 km/h (3 Bft)
26.09.2014 02:06 12,7 C 11,7 C 86 % 1021,6 hPa 0,0 l/m 0 min 0 min 0 W/m 18,8 km/h (3 Bft)
26.09.2014 02:08 12,8 C 11,7 C 86 % 1021,5 hPa 0,0 l/m 0 min 0 min 0 W/m 14,6 km/h (3 Bft)
26.09.2014 02:10 12,8 C 11,7 C 86 % 1021,5 hPa 0,0 l/m 0 min 0 min 0 W/m 14,6 km/h (3 Bft)
26.09.2014 02:12 12,8 C 11,7 C 86 % 1021,5 hPa 0,0 l/m 0 min 0 min 0 W/m 16,7 km/h (3 Bft)
26.09.2014 02:14 12,8 C 11,7 C 86 % 1021,5 hPa 0,0 l/m 0 min 0 min 0 W/m 12,6 km/h (3 Bft)
26.09.2014 02:16 12,8 C 11,7 C 86 % 1021,5 hPa 0,0 l/m 0 min 0 min 0 W/m 20,9 km/h (4 Bft)
26.09.2014 02:18 12,8 C 12,2 C 86 % 1021,5 hPa 0,0 l/m 0 min 0 min 0 W/m 23,0 km/h (4 Bft)
26.09.2014 02:20 12,9 C 12,2 C 86 % 1021,5 hPa 0,0 l/m 0 min 0 min 0 W/m 20,9 km/h (4 Bft)
26.09.2014 02:22 12,9 C 12,2 C 86 % 1021,5 hPa 0,0 l/m 0 min 0 min 0 W/m 14,6 km/h (3 Bft)
26.09.2014 02:24 12,9 C 12,2 C 86 % 1021,5 hPa 0,0 l/m 0 min 0 min 0 W/m 16,7 km/h (3 Bft)
26.09.2014 02:26 13,0 C 12,2 C 86 % 1021,5 hPa 0,0 l/m 0 min 0 min 0 W/m 16,7 km/h (3 Bft)
26.09.2014 02:28 13,1 C 12,2 C 86 % 1021,5 hPa 0,0 l/m 0 min 0 min 0 W/m 14,6 km/h (3 Bft)
26.09.2014 02:30 13,1 C 12,2 C 86 % 1021,6 hPa 0,0 l/m 0 min 0 min 0 W/m 16,7 km/h (3 Bft)
26.09.2014 02:32 13,1 C 12,2 C 86 % 1021,6 hPa 0,0 l/m 0 min 0 min 0 W/m 12,6 km/h (3 Bft)
26.09.2014 02:34 13,1 C 12,2 C 86 % 1021,6 hPa 0,0 l/m 0 min 0 min 0 W/m 18,8 km/h (3 Bft)
26.09.2014 02:36 13,2 C 12,2 C 86 % 1021,6 hPa 0,0 l/m 0 min 0 min 0 W/m 16,7 km/h (3 Bft)
26.09.2014 02:38 13,2 C 12,2 C 86 % 1021,6 hPa 0,0 l/m 0 min 0 min 0 W/m 18,8 km/h (3 Bft)
26.09.2014 02:40 13,2 C 12,2 C 86 % 1021,6 hPa 0,0 l/m 0 min 0 min 0 W/m 18,8 km/h (3 Bft)
26.09.2014 02:42 13,2 C 12,2 C 86 % 1021,6 hPa 0,0 l/m 0 min 0 min 0 W/m 16,7 km/h (3 Bft)
26.09.2014 02:44 13,3 C 12,2 C 86 % 1021,5 hPa 0,0 l/m 0 min 0 min 0 W/m 18,8 km/h (3 Bft)
26.09.2014 02:46 13,3 C 12,2 C 86 % 1021,5 hPa 0,0 l/m 0 min 0 min 0 W/m 18,8 km/h (3 Bft)
26.09.2014 02:48 13,3 C 12,2 C 86 % 1021,5 hPa 0,0 l/m 0 min 0 min 0 W/m 16,7 km/h (3 Bft)
26.09.2014 02:50 13,3 C 12,2 C 86 % 1021,5 hPa 0,0 l/m 0 min 0 min 0 W/m 16,7 km/h (3 Bft)
26.09.2014 02:52 13,3 C 12,2 C 86 % 1021,6 hPa 0,0 l/m 0 min 0 min 0 W/m 14,6 km/h (3 Bft)
26.09.2014 02:54 13,4 C 12,2 C 86 % 1021,5 hPa 0,0 l/m 0 min 0 min 0 W/m 18,8 km/h (3 Bft)
26.09.2014 02:56 13,4 C 12,2 C 86 % 1021,5 hPa 0,0 l/m 0 min 0 min 0 W/m 14,6 km/h (3 Bft)
26.09.2014 02:58 13,4 C 12,2 C 86 % 1021,5 hPa 0,0 l/m 0 min 0 min 0 W/m 18,8 km/h (3 Bft)
26.09.2014 03:00 13,4 C 12,2 C 86 % 1021,5 hPa 0,0 l/m 0 min 0 min 0 W/m 16,7 km/h (3 Bft)
26.09.2014 03:02 13,4 C 12,2 C 86 % 1021,6 hPa 0,0 l/m 0 min 0 min 0 W/m 14,6 km/h (3 Bft)
26.09.2014 03:04 13,4 C 12,2 C 86 % 1021,5 hPa 0,0 l/m 0 min 0 min 0 W/m 14,6 km/h (3 Bft)
26.09.2014 03:06 13,4 C 12,2 C 86 % 1021,5 hPa 0,0 l/m 0 min 0 min 0 W/m 16,7 km/h (3 Bft)
26.09.2014 03:08 13,5 C 12,2 C 86 % 1021,5 hPa 0,0 l/m 0 min 0 min 0 W/m 12,6 km/h (3 Bft)
26.09.2014 03:10 13,5 C 12,2 C 86 % 1021,5 hPa 0,0 l/m 0 min 0 min 0 W/m 25,1 km/h (4 Bft)
26.09.2014 03:12 13,5 C 12,2 C 86 % 1021,5 hPa 0,0 l/m 0 min 0 min 0 W/m 16,7 km/h (3 Bft)
26.09.2014 03:14 13,5 C 12,2 C 86 % 1021,5 hPa 0,0 l/m 0 min 0 min 0 W/m 18,8 km/h (3 Bft)
26.09.2014 03:16 13,6 C 12,2 C 86 % 1021,5 hPa 0,0 l/m 0 min 0 min 0 W/m 18,8 km/h (3 Bft)
26.09.2014 03:18 13,6 C 12,2 C 86 % 1021,5 hPa 0,0 l/m 0 min 0 min 0 W/m 16,7 km/h (3 Bft)
26.09.2014 03:20 13,6 C 12,2 C 86 % 1021,5 hPa 0,0 l/m 0 min 0 min 0 W/m 20,9 km/h (4 Bft)
26.09.2014 03:22 13,6 C 12,2 C 86 % 1021,5 hPa 0,0 l/m 0 min 0 min 0 W/m 18,8 km/h (3 Bft)
26.09.2014 03:24 13,6 C 12,2 C 86 % 1021,5 hPa 0,0 l/m 0 min 0 min 0 W/m 18,8 km/h (3 Bft)
26.09.2014 03:26 13,6 C 12,2 C 86 % 1021,5 hPa 0,0 l/m 0 min 0 min 0 W/m 16,7 km/h (3 Bft)
26.09.2014 03:28 13,6 C 12,2 C 86 % 1021,6 hPa 0,0 l/m 0 min 0 min 0 W/m 12,6 km/h (3 Bft)
26.09.2014 03:30 13,6 C 12,2 C 86 % 1021,6 hPa 0,0 l/m 0 min 0 min 0 W/m 14,6 km/h (3 Bft)
26.09.2014 03:32 13,6 C 12,2 C 86 % 1021,5 hPa 0,0 l/m 0 min 0 min 0 W/m 14,6 km/h (3 Bft)
26.09.2014 03:34 13,6 C 12,2 C 86 % 1021,6 hPa 0,0 l/m 0 min 0 min 0 W/m 18,8 km/h (3 Bft)
26.09.2014 03:36 13,6 C 12,2 C 86 % 1021,6 hPa 0,0 l/m 0 min 0 min 0 W/m 14,6 km/h (3 Bft)
26.09.2014 03:38 13,6 C 12,2 C 86 % 1021,6 hPa 0,0 l/m 0 min 0 min 0 W/m 14,6 km/h (3 Bft)
26.09.2014 03:40 13,6 C 12,2 C 86 % 1021,6 hPa 0,0 l/m 0 min 0 min 0 W/m 12,6 km/h (3 Bft)
26.09.2014 03:42 13,6 C 12,2 C 87 % 1021,6 hPa 0,0 l/m 0 min 0 min 0 W/m 12,6 km/h (3 Bft)
26.09.2014 03:44 13,6 C 12,2 C 87 % 1021,6 hPa 0,0 l/m 0 min 0 min 0 W/m 18,8 km/h (3 Bft)
26.09.2014 03:46 13,6 C 12,2 C 87 % 1021,6 hPa 0,0 l/m 0 min 0 min 0 W/m 12,6 km/h (3 Bft)
26.09.2014 03:48 13,6 C 12,2 C 87 % 1021,6 hPa 0,0 l/m 0 min 0 min 0 W/m 18,8 km/h (3 Bft)
26.09.2014 03:50 13,6 C 12,2 C 87 % 1021,6 hPa 0,0 l/m 0 min 0 min 0 W/m 16,7 km/h (3 Bft)
26.09.2014 03:52 13,6 C 12,2 C 87 % 1021,6 hPa 0,0 l/m 0 min 0 min 0 W/m 14,6 km/h (3 Bft)
26.09.2014 03:54 13,6 C 12,2 C 87 % 1021,6 hPa 0,0 l/m 0 min 0 min 0 W/m 18,8 km/h (3 Bft)
26.09.2014 03:56 13,6 C 12,2 C 87 % 1021,6 hPa 0,0 l/m 0 min 0 min 0 W/m 16,7 km/h (3 Bft)
26.09.2014 03:58 13,6 C 12,2 C 87 % 1021,7 hPa 0,0 l/m 0 min 0 min 0 W/m 10,5 km/h (2 Bft)
26.09.2014 04:00 13,6 C 12,2 C 87 % 1021,7 hPa 0,0 l/m 0 min 0 min 0 W/m 14,6 km/h (3 Bft)
26.09.2014 04:02 13,6 C 12,2 C 87 % 1021,7 hPa 0,0 l/m 0 min 0 min 0 W/m 10,5 km/h (2 Bft)
26.09.2014 04:04 13,6 C 12,2 C 87 % 1021,8 hPa 0,0 l/m 0 min 0 min 0 W/m 14,6 km/h (3 Bft)
26.09.2014 04:06 13,6 C 12,2 C 87 % 1021,7 hPa 0,0 l/m 0 min 0 min 0 W/m 14,6 km/h (3 Bft)
26.09.2014 04:11 13,6 C 12,2 C 87 % 1021,7 hPa 0,0 l/m 0 min 0 min 0 W/m 14,6 km/h (3 Bft)
26.09.2014 04:12 13,6 C 12,2 C 87 % 1021,7 hPa 0,0 l/m 0 min 0 min 0 W/m 12,6 km/h (3 Bft)
26.09.2014 04:14 13,6 C 12,2 C 87 % 1021,7 hPa 0,0 l/m 0 min 0 min 0 W/m 14,6 km/h (3 Bft)
26.09.2014 04:16 13,6 C 12,2 C 87 % 1021,5 hPa 0,0 l/m 0 min 0 min 0 W/m 14,6 km/h (3 Bft)
26.09.2014 04:18 13,6 C 12,2 C 87 % 1021,6 hPa 0,0 l/m 0 min 0 min 0 W/m 14,6 km/h (3 Bft)
26.09.2014 04:20 13,5 C 12,2 C 87 % 1021,6 hPa 0,0 l/m 0 min 0 min 0 W/m 14,6 km/h (3 Bft)
26.09.2014 04:22 13,5 C 12,2 C 87 % 1021,7 hPa 0,0 l/m 0 min 0 min 0 W/m 14,6 km/h (3 Bft)
26.09.2014 04:24 13,5 C 12,2 C 87 % 1021,7 hPa 0,0 l/m 0 min 0 min 0 W/m 14,6 km/h (3 Bft)
26.09.2014 04:26 13,5 C 12,2 C 87 % 1021,7 hPa 0,0 l/m 0 min 0 min 0 W/m 14,6 km/h (3 Bft)
26.09.2014 04:28 13,5 C 12,2 C 88 % 1021,6 hPa 0,0 l/m 0 min 0 min 0 W/m 16,7 km/h (3 Bft)
26.09.2014 04:30 13,5 C 12,2 C 88 % 1021,6 hPa 0,0 l/m 0 min 0 min 0 W/m 14,6 km/h (3 Bft)
26.09.2014 04:32 13,5 C 12,2 C 88 % 1021,6 hPa 0,0 l/m 0 min 0 min 0 W/m 16,7 km/h (3 Bft)
26.09.2014 04:34 13,5 C 12,2 C 88 % 1021,6 hPa 0,0 l/m 0 min 0 min 0 W/m 18,8 km/h (3 Bft)
26.09.2014 04:36 13,4 C 12,2 C 88 % 1021,5 hPa 0,0 l/m 0 min 0 min 0 W/m 12,6 km/h (3 Bft)
26.09.2014 04:38 13,4 C 12,2 C 88 % 1021,5 hPa 0,0 l/m 0 min 0 min 0 W/m 12,6 km/h (3 Bft)
26.09.2014 04:40 13,4 C 12,2 C 88 % 1021,5 hPa 0,0 l/m 0 min 0 min 0 W/m 14,6 km/h (3 Bft)
26.09.2014 04:42 13,4 C 12,2 C 88 % 1021,5 hPa 0,0 l/m 0 min 0 min 0 W/m 14,6 km/h (3 Bft)
26.09.2014 04:44 13,4 C 12,2 C 88 % 1021,5 hPa 0,0 l/m 0 min 0 min 0 W/m 18,8 km/h (3 Bft)
26.09.2014 04:46 13,4 C 12,2 C 88 % 1021,5 hPa 0,0 l/m 0 min 0 min 0 W/m 16,7 km/h (3 Bft)
26.09.2014 04:48 13,4 C 12,2 C 88 % 1021,4 hPa 0,0 l/m 0 min 0 min 0 W/m 12,6 km/h (3 Bft)
26.09.2014 04:50 13,4 C 12,2 C 88 % 1021,4 hPa 0,0 l/m 0 min 0 min 0 W/m 10,5 km/h (2 Bft)
26.09.2014 04:52 13,4 C 12,2 C 88 % 1021,4 hPa 0,0 l/m 0 min 0 min 0 W/m 12,6 km/h (3 Bft)
26.09.2014 04:54 13,4 C 12,2 C 88 % 1021,4 hPa 0,0 l/m 0 min 0 min 0 W/m 12,6 km/h (3 Bft)
26.09.2014 04:56 13,4 C 12,2 C 88 % 1021,4 hPa 0,0 l/m 0 min 0 min 0 W/m 14,6 km/h (3 Bft)
26.09.2014 04:58 13,4 C 12,2 C 88 % 1021,4 hPa 0,0 l/m 0 min 0 min 0 W/m 10,5 km/h (2 Bft)
26.09.2014 05:00 13,4 C 12,2 C 88 % 1021,4 hPa 0,0 l/m 0 min 0 min 0 W/m 10,5 km/h (2 Bft)
26.09.2014 05:02 13,4 C 12,2 C 88 % 1021,4 hPa 0,0 l/m 0 min 0 min 0 W/m 14,6 km/h (3 Bft)
26.09.2014 05:04 13,4 C 12,2 C 88 % 1021,4 hPa 0,0 l/m 0 min 0 min 0 W/m 6,3 km/h (2 Bft)
26.09.2014 05:06 13,4 C 12,2 C 88 % 1021,4 hPa 0,0 l/m 0 min 0 min 0 W/m 12,6 km/h (3 Bft)
26.09.2014 05:08 13,4 C 12,2 C 88 % 1021,5 hPa 0,0 l/m 0 min 0 min 0 W/m 16,7 km/h (3 Bft)
26.09.2014 05:10 13,4 C 12,2 C 88 % 1021,4 hPa 0,0 l/m 0 min 0 min 0 W/m 12,6 km/h (3 Bft)
26.09.2014 05:12 13,4 C 12,2 C 88 % 1021,4 hPa 0,0 l/m 0 min 0 min 0 W/m 12,6 km/h (3 Bft)
26.09.2014 05:14 13,4 C 12,2 C 88 % 1021,4 hPa 0,0 l/m 0 min 0 min 0 W/m 12,6 km/h (3 Bft)
26.09.2014 05:16 13,4 C 12,2 C 88 % 1021,4 hPa 0,0 l/m 0 min 0 min 0 W/m 14,6 km/h (3 Bft)
26.09.2014 05:18 13,4 C 12,2 C 88 % 1021,4 hPa 0,0 l/m 0 min 0 min 0 W/m 18,8 km/h (3 Bft)
26.09.2014 05:20 13,4 C 12,2 C 88 % 1021,4 hPa 0,0 l/m 0 min 0 min 0 W/m 12,6 km/h (3 Bft)
26.09.2014 05:22 13,4 C 12,2 C 89 % 1021,4 hPa 0,0 l/m 0 min 0 min 0 W/m 16,7 km/h (3 Bft)
26.09.2014 05:24 13,4 C 12,2 C 89 % 1021,4 hPa 0,0 l/m 0 min 0 min 0 W/m 14,6 km/h (3 Bft)
26.09.2014 05:26 13,4 C 12,2 C 89 % 1021,3 hPa 0,0 l/m 0 min 0 min 0 W/m 14,6 km/h (3 Bft)
26.09.2014 05:28 13,4 C 12,2 C 89 % 1021,4 hPa 0,0 l/m 0 min 0 min 0 W/m 18,8 km/h (3 Bft)
26.09.2014 05:30 13,4 C 12,2 C 89 % 1021,3 hPa 0,0 l/m 0 min 0 min 0 W/m 12,6 km/h (3 Bft)
26.09.2014 05:32 13,4 C 12,2 C 89 % 1021,3 hPa 0,0 l/m 0 min 0 min 0 W/m 8,4 km/h (2 Bft)
26.09.2014 05:34 13,4 C 12,2 C 89 % 1021,3 hPa 0,0 l/m 0 min 0 min 0 W/m 14,6 km/h (3 Bft)
26.09.2014 05:36 13,4 C 12,2 C 89 % 1021,3 hPa 0,0 l/m 0 min 0 min 0 W/m 18,8 km/h (3 Bft)
26.09.2014 05:38 13,4 C 12,2 C 89 % 1021,3 hPa 0,0 l/m 0 min 0 min 0 W/m 12,6 km/h (3 Bft)
26.09.2014 05:40 13,3 C 12,2 C 89 % 1021,3 hPa 0,0 l/m 0 min 0 min 0 W/m 10,5 km/h (2 Bft)
26.09.2014 05:42 13,3 C 12,2 C 89 % 1021,2 hPa 0,0 l/m 0 min 0 min 0 W/m 14,6 km/h (3 Bft)
26.09.2014 05:44 13,4 C 12,2 C 89 % 1021,3 hPa 0,0 l/m 0 min 0 min 0 W/m 23,0 km/h (4 Bft)
26.09.2014 05:46 13,3 C 12,2 C 89 % 1021,3 hPa 0,0 l/m 0 min 0 min 0 W/m 16,7 km/h (3 Bft)
26.09.2014 05:48 13,4 C 12,2 C 89 % 1021,3 hPa 0,0 l/m 0 min 0 min 0 W/m 12,6 km/h (3 Bft)
26.09.2014 05:50 13,3 C 12,2 C 89 % 1021,3 hPa 0,0 l/m 0 min 0 min 0 W/m 16,7 km/h (3 Bft)
26.09.2014 05:52 13,3 C 12,2 C 89 % 1021,3 hPa 0,0 l/m 0 min 0 min 0 W/m 16,7 km/h (3 Bft)
26.09.2014 05:54 13,3 C 12,2 C 89 % 1021,3 hPa 0,0 l/m 0 min 0 min 0 W/m 14,6 km/h (3 Bft)
26.09.2014 05:56 13,3 C 12,2 C 89 % 1021,3 hPa 0,0 l/m 0 min 0 min 0 W/m 14,6 km/h (3 Bft)
26.09.2014 05:58 13,4 C 12,2 C 89 % 1021,3 hPa 0,0 l/m 0 min 0 min 0 W/m 18,8 km/h (3 Bft)
26.09.2014 06:00 13,4 C 12,2 C 89 % 1021,3 hPa 0,0 l/m 0 min 0 min 0 W/m 12,6 km/h (3 Bft)
26.09.2014 06:02 13,3 C 12,2 C 89 % 1021,3 hPa 0,0 l/m 0 min 0 min 0 W/m 14,6 km/h (3 Bft)
26.09.2014 06:05 13,3 C 12,2 C 89 % 1021,3 hPa 0,0 l/m 0 min 0 min 0 W/m 16,7 km/h (3 Bft)
26.09.2014 06:06 13,4 C 12,2 C 89 % 1021,3 hPa 0,0 l/m 0 min 0 min 0 W/m 16,7 km/h (3 Bft)
26.09.2014 06:08 13,3 C 12,2 C 89 % 1021,3 hPa 0,0 l/m 0 min 0 min 0 W/m 14,6 km/h (3 Bft)
26.09.2014 06:10 13,3 C 12,2 C 89 % 1021,3 hPa 0,0 l/m 0 min 0 min 0 W/m 14,6 km/h (3 Bft)
26.09.2014 06:12 13,4 C 12,2 C 89 % 1021,3 hPa 0,0 l/m 0 min 0 min 0 W/m 20,9 km/h (4 Bft)
26.09.2014 06:14 13,3 C 12,2 C 89 % 1021,3 hPa 0,0 l/m 0 min 0 min 0 W/m 16,7 km/h (3 Bft)
26.09.2014 06:16 13,3 C 12,2 C 90 % 1021,2 hPa 0,0 l/m 0 min 0 min 0 W/m 16,7 km/h (3 Bft)
26.09.2014 06:18 13,3 C 12,2 C 90 % 1021,2 hPa 0,0 l/m 0 min 0 min 0 W/m 20,9 km/h (4 Bft)
26.09.2014 06:20 13,3 C 12,2 C 90 % 1021,3 hPa 0,0 l/m 0 min 0 min 0 W/m 23,0 km/h (4 Bft)
26.09.2014 06:22 13,4 C 12,2 C 90 % 1021,3 hPa 0,0 l/m 0 min 0 min 0 W/m 14,6 km/h (3 Bft)
26.09.2014 06:24 13,4 C 12,2 C 90 % 1021,3 hPa 0,0 l/m 0 min 0 min 0 W/m 18,8 km/h (3 Bft)
26.09.2014 06:26 13,4 C 12,2 C 90 % 1021,4 hPa 0,0 l/m 0 min 0 min 0 W/m 18,8 km/h (3 Bft)
26.09.2014 06:28 13,4 C 12,2 C 90 % 1021,4 hPa 0,0 l/m 0 min 0 min 0 W/m 14,6 km/h (3 Bft)
26.09.2014 06:30 13,4 C 12,2 C 90 % 1021,4 hPa 0,0 l/m 0 min 0 min 0 W/m 14,6 km/h (3 Bft)
26.09.2014 06:32 13,4 C 12,2 C 90 % 1021,4 hPa 0,0 l/m 0 min 0 min 0 W/m 20,9 km/h (4 Bft)
26.09.2014 06:34 13,4 C 12,2 C 90 % 1021,4 hPa 0,0 l/m 0 min 0 min 0 W/m 16,7 km/h (3 Bft)
26.09.2014 06:36 13,4 C 12,2 C 90 % 1021,3 hPa 0,0 l/m 0 min 0 min 0 W/m 18,8 km/h (3 Bft)
26.09.2014 06:38 13,4 C 12,2 C 90 % 1021,4 hPa 0,0 l/m 0 min 0 min 0 W/m 20,9 km/h (4 Bft)
26.09.2014 06:40 13,3 C 12,2 C 90 % 1021,4 hPa 0,0 l/m 0 min 0 min 0 W/m 14,6 km/h (3 Bft)
26.09.2014 06:42 13,4 C 12,2 C 90 % 1021,4 hPa 0,0 l/m 0 min 0 min 0 W/m 14,6 km/h (3 Bft)
26.09.2014 06:44 13,4 C 12,2 C 90 % 1021,4 hPa 0,0 l/m 0 min 0 min 0 W/m 14,6 km/h (3 Bft)
26.09.2014 06:46 13,4 C 12,2 C 90 % 1021,5 hPa 0,0 l/m 0 min 0 min 0 W/m 16,7 km/h (3 Bft)
26.09.2014 06:48 13,4 C 12,2 C 90 % 1021,5 hPa 0,0 l/m 0 min 0 min 0 W/m 16,7 km/h (3 Bft)
26.09.2014 06:50 13,4 C 12,2 C 90 % 1021,5 hPa 0,0 l/m 0 min 0 min 0 W/m 23,0 km/h (4 Bft)
26.09.2014 06:52 13,4 C 12,2 C 90 % 1021,5 hPa 0,0 l/m 0 min 0 min 0 W/m 18,8 km/h (3 Bft)
26.09.2014 06:54 13,4 C 12,2 C 90 % 1021,5 hPa 0,0 l/m 0 min 0 min 0 W/m 20,9 km/h (4 Bft)
26.09.2014 06:56 13,4 C 12,2 C 90 % 1021,5 hPa 0,0 l/m 0 min 0 min 0 W/m 23,0 km/h (4 Bft)
26.09.2014 06:58 13,4 C 12,2 C 90 % 1021,5 hPa 0,0 l/m 0 min 0 min 0 W/m 16,7 km/h (3 Bft)
26.09.2014 07:00 13,4 C 12,2 C 90 % 1021,5 hPa 0,0 l/m 0 min 0 min 0 W/m 14,6 km/h (3 Bft)
26.09.2014 07:02 13,4 C 12,2 C 90 % 1021,5 hPa 0,0 l/m 0 min 0 min 0 W/m 20,9 km/h (4 Bft)
26.09.2014 07:04 13,4 C 12,2 C 90 % 1021,6 hPa 0,0 l/m 0 min 0 min 0 W/m 14,6 km/h (3 Bft)
26.09.2014 07:06 13,4 C 12,2 C 90 % 1021,5 hPa 0,0 l/m 0 min 0 min 0 W/m 12,6 km/h (3 Bft)
26.09.2014 07:08 13,4 C 12,2 C 90 % 1021,5 hPa 0,0 l/m 0 min 0 min 0 W/m 14,6 km/h (3 Bft)
26.09.2014 07:10 13,4 C 12,2 C 90 % 1021,6 hPa 0,0 l/m 0 min 0 min 0 W/m 10,5 km/h (2 Bft)
26.09.2014 07:12 13,4 C 12,2 C 90 % 1021,6 hPa 0,0 l/m 0 min 0 min 0 W/m 14,6 km/h (3 Bft)
26.09.2014 07:14 13,4 C 12,2 C 90 % 1021,6 hPa 0,0 l/m 0 min 0 min 0 W/m 18,8 km/h (3 Bft)
26.09.2014 07:16 13,4 C 12,2 C 90 % 1021,6 hPa 0,0 l/m 0 min 0 min 0 W/m 14,6 km/h (3 Bft)
26.09.2014 07:18 13,4 C 12,2 C 90 % 1021,6 hPa 0,0 l/m 0 min 0 min 0 W/m 14,6 km/h (3 Bft)
26.09.2014 07:20 13,4 C 12,2 C 90 % 1021,7 hPa 0,0 l/m 0 min 0 min 0 W/m 14,6 km/h (3 Bft)
26.09.2014 07:22 13,4 C 12,2 C 90 % 1021,7 hPa 0,0 l/m 0 min 0 min 0 W/m 8,4 km/h (2 Bft)
26.09.2014 07:24 13,4 C 12,2 C 90 % 1021,7 hPa 0,0 l/m 0 min 0 min 0 W/m 14,6 km/h (3 Bft)
26.09.2014 07:26 13,4 C 12,2 C 90 % 1021,7 hPa 0,0 l/m 0 min 0 min 0 W/m 10,5 km/h (2 Bft)
26.09.2014 07:28 13,4 C 12,2 C 90 % 1021,8 hPa 0,0 l/m 0 min 0 min 0 W/m 16,7 km/h (3 Bft)
26.09.2014 07:30 13,4 C 12,2 C 90 % 1021,8 hPa 0,0 l/m 0 min 0 min 0 W/m 16,7 km/h (3 Bft)
26.09.2014 07:32 13,4 C 12,2 C 90 % 1021,8 hPa 0,0 l/m 0 min 0 min 0 W/m 14,6 km/h (3 Bft)
26.09.2014 07:34 13,4 C 12,2 C 90 % 1021,8 hPa 0,0 l/m 0 min 0 min 0 W/m 16,7 km/h (3 Bft)
26.09.2014 07:36 13,4 C 12,2 C 90 % 1021,9 hPa 0,0 l/m 0 min 0 min 0 W/m 18,8 km/h (3 Bft)
26.09.2014 07:38 13,4 C 12,2 C 90 % 1021,9 hPa 0,0 l/m 0 min 0 min 0 W/m 12,6 km/h (3 Bft)
26.09.2014 07:40 13,4 C 12,2 C 90 % 1022,0 hPa 0,0 l/m 0 min 0 min 0 W/m 16,7 km/h (3 Bft)
26.09.2014 07:42 13,4 C 12,2 C 90 % 1021,9 hPa 0,0 l/m 0 min 0 min 2 W/m 10,5 km/h (2 Bft)
26.09.2014 07:44 13,4 C 12,2 C 90 % 1022,0 hPa 0,0 l/m 0 min 0 min 5 W/m 16,7 km/h (3 Bft)
26.09.2014 07:46 13,4 C 12,2 C 90 % 1022,0 hPa 0,0 l/m 0 min 0 min 5 W/m 14,6 km/h (3 Bft)
26.09.2014 07:48 13,4 C 12,2 C 90 % 1022,0 hPa 0,0 l/m 0 min 0 min 5 W/m 16,7 km/h (3 Bft)
26.09.2014 07:50 13,4 C 12,2 C 90 % 1022,0 hPa 0,0 l/m 0 min 0 min 5 W/m 14,6 km/h (3 Bft)
26.09.2014 07:52 13,4 C 12,2 C 90 % 1022,0 hPa 0,0 l/m 0 min 0 min 7 W/m 12,6 km/h (3 Bft)
26.09.2014 07:54 13,4 C 12,2 C 90 % 1022,1 hPa 0,0 l/m 0 min 0 min 7 W/m 12,6 km/h (3 Bft)
26.09.2014 07:56 13,4 C 12,2 C 90 % 1022,0 hPa 0,0 l/m 0 min 0 min 7 W/m 18,8 km/h (3 Bft)
26.09.2014 07:58 13,4 C 12,2 C 90 % 1022,0 hPa 0,0 l/m 0 min 0 min 7 W/m 20,9 km/h (4 Bft)
26.09.2014 08:00 13,4 C 12,2 C 90 % 1022,1 hPa 0,0 l/m 0 min 0 min 8 W/m 18,8 km/h (3 Bft)
26.09.2014 08:02 13,4 C 12,2 C 90 % 1022,0 hPa 0,0 l/m 0 min 0 min 9 W/m 16,7 km/h (3 Bft)
26.09.2014 08:04 13,4 C 12,2 C 90 % 1022,1 hPa 0,0 l/m 0 min 0 min 9 W/m 14,6 km/h (3 Bft)
26.09.2014 08:06 13,4 C 12,2 C 90 % 1022,0 hPa 0,0 l/m 0 min 0 min 11 W/m 16,7 km/h (3 Bft)
26.09.2014 08:08 13,4 C 12,2 C 90 % 1022,1 hPa 0,0 l/m 0 min 0 min 11 W/m 16,7 km/h (3 Bft)
26.09.2014 08:10 13,4 C 12,2 C 90 % 1022,0 hPa 0,0 l/m 0 min 0 min 11 W/m 20,9 km/h (4 Bft)
26.09.2014 08:12 13,4 C 12,2 C 90 % 1022,1 hPa 0,0 l/m 0 min 0 min 12 W/m 18,8 km/h (3 Bft)
26.09.2014 08:14 13,4 C 12,2 C 90 % 1022,1 hPa 0,0 l/m 0 min 0 min 12 W/m 16,7 km/h (3 Bft)
26.09.2014 08:16 13,4 C 12,2 C 90 % 1022,1 hPa 0,0 l/m 0 min 0 min 13 W/m 14,6 km/h (3 Bft)
26.09.2014 08:18 13,4 C 12,2 C 90 % 1022,1 hPa 0,0 l/m 0 min 0 min 15 W/m 12,6 km/h (3 Bft)
26.09.2014 08:20 13,4 C 12,2 C 90 % 1022,1 hPa 0,0 l/m 0 min 0 min 18 W/m 12,6 km/h (3 Bft)
26.09.2014 08:22 13,4 C 12,2 C 90 % 1022,0 hPa 0,0 l/m 0 min 0 min 21 W/m 10,5 km/h (2 Bft)
26.09.2014 08:24 13,4 C 12,2 C 90 % 1022,1 hPa 0,0 l/m 0 min 0 min 24 W/m 14,6 km/h (3 Bft)
26.09.2014 08:26 13,4 C 12,2 C 90 % 1022,0 hPa 0,0 l/m 0 min 0 min 34 W/m 18,8 km/h (3 Bft)
26.09.2014 08:28 13,4 C 12,2 C 90 % 1022,0 hPa 0,0 l/m 0 min 0 min 44 W/m 20,9 km/h (4 Bft)
26.09.2014 08:30 13,4 C 12,2 C 90 % 1022,1 hPa 0,0 l/m 0 min 0 min 50 W/m 14,6 km/h (3 Bft)
26.09.2014 08:32 13,4 C 12,2 C 90 % 1022,1 hPa 0,0 l/m 0 min 0 min 55 W/m 18,8 km/h (3 Bft)
26.09.2014 08:34 13,4 C 12,8 C 90 % 1022,1 hPa 0,0 l/m 0 min 0 min 58 W/m 20,9 km/h (4 Bft)
26.09.2014 08:36 13,4 C 12,8 C 90 % 1022,1 hPa 0,0 l/m 0 min 0 min 56 W/m 25,1 km/h (4 Bft)
26.09.2014 08:38 13,4 C 12,8 C 90 % 1022,1 hPa 0,0 l/m 0 min 0 min 54 W/m 29,3 km/h (5 Bft)
26.09.2014 08:40 13,5 C 12,8 C 90 % 1022,1 hPa 0,0 l/m 0 min 0 min 53 W/m 16,7 km/h (3 Bft)
26.09.2014 08:42 13,5 C 12,8 C 90 % 1022,1 hPa 0,0 l/m 0 min 0 min 53 W/m 20,9 km/h (4 Bft)
26.09.2014 08:44 13,6 C 12,8 C 90 % 1022,2 hPa 0,0 l/m 0 min 0 min 52 W/m 18,8 km/h (3 Bft)
26.09.2014 08:46 13,6 C 12,8 C 90 % 1022,2 hPa 0,0 l/m 0 min 0 min 51 W/m 23,0 km/h (4 Bft)
26.09.2014 08:48 13,6 C 12,8 C 90 % 1022,2 hPa 0,0 l/m 0 min 0 min 50 W/m 20,9 km/h (4 Bft)
26.09.2014 08:50 13,6 C 12,8 C 90 % 1022,3 hPa 0,0 l/m 0 min 0 min 45 W/m 20,9 km/h (4 Bft)
26.09.2014 08:52 13,6 C 12,8 C 90 % 1022,3 hPa 0,0 l/m 0 min 0 min 41 W/m 14,6 km/h (3 Bft)
26.09.2014 08:54 13,6 C 12,8 C 90 % 1022,4 hPa 0,0 l/m 0 min 0 min 36 W/m 16,7 km/h (3 Bft)
26.09.2014 08:56 13,6 C 12,8 C 90 % 1022,4 hPa 0,0 l/m 0 min 0 min 38 W/m 14,6 km/h (3 Bft)
26.09.2014 08:58 13,7 C 12,8 C 90 % 1022,4 hPa 0,0 l/m 0 min 0 min 43 W/m 18,8 km/h (3 Bft)
26.09.2014 09:00 13,7 C 12,8 C 90 % 1022,4 hPa 0,0 l/m 0 min 0 min 45 W/m 20,9 km/h (4 Bft)
26.09.2014 09:02 13,7 C 12,8 C 90 % 1022,4 hPa 0,0 l/m 0 min 0 min 48 W/m 16,7 km/h (3 Bft)
26.09.2014 09:04 13,7 C 12,8 C 90 % 1022,4 hPa 0,0 l/m 0 min 0 min 49 W/m 16,7 km/h (3 Bft)
26.09.2014 09:06 13,7 C 12,8 C 90 % 1022,5 hPa 0,0 l/m 0 min 0 min 48 W/m 20,9 km/h (4 Bft)
26.09.2014 09:08 13,7 C 12,8 C 90 % 1022,5 hPa 0,0 l/m 0 min 0 min 43 W/m 14,6 km/h (3 Bft)
26.09.2014 09:10 13,7 C 12,8 C 90 % 1022,6 hPa 0,0 l/m 0 min 0 min 47 W/m 18,8 km/h (3 Bft)
26.09.2014 09:12 13,7 C 12,8 C 90 % 1022,6 hPa 0,0 l/m 0 min 0 min 49 W/m 20,9 km/h (4 Bft)
26.09.2014 09:14 13,8 C 12,8 C 90 % 1022,7 hPa 0,0 l/m 0 min 0 min 52 W/m 20,9 km/h (4 Bft)
26.09.2014 09:16 13,8 C 12,8 C 90 % 1022,7 hPa 0,0 l/m 0 min 0 min 61 W/m 16,7 km/h (3 Bft)
26.09.2014 09:18 13,8 C 12,8 C 90 % 1022,8 hPa 0,0 l/m 0 min 0 min 62 W/m 20,9 km/h (4 Bft)
26.09.2014 09:20 13,8 C 12,8 C 90 % 1022,8 hPa 0,0 l/m 0 min 0 min 56 W/m 18,8 km/h (3 Bft)
26.09.2014 09:22 13,8 C 12,8 C 90 % 1022,8 hPa 0,0 l/m 0 min 0 min 57 W/m 16,7 km/h (3 Bft)
26.09.2014 09:24 13,8 C 12,8 C 90 % 1022,8 hPa 0,0 l/m 0 min 0 min 58 W/m 18,8 km/h (3 Bft)
26.09.2014 09:26 13,9 C 12,8 C 90 % 1022,9 hPa 0,0 l/m 0 min 0 min 59 W/m 14,6 km/h (3 Bft)
26.09.2014 09:28 13,9 C 12,8 C 90 % 1023,0 hPa 0,0 l/m 0 min 0 min 68 W/m 14,6 km/h (3 Bft)
26.09.2014 09:30 13,9 C 12,8 C 90 % 1023,0 hPa 0,0 l/m 0 min 0 min 76 W/m 20,9 km/h (4 Bft)
26.09.2014 09:32 13,9 C 12,8 C 90 % 1023,0 hPa 0,0 l/m 0 min 0 min 78 W/m 20,9 km/h (4 Bft)
26.09.2014 09:34 13,9 C 12,8 C 90 % 1023,0 hPa 0,0 l/m 0 min 0 min 82 W/m 16,7 km/h (3 Bft)
26.09.2014 09:36 13,9 C 13,3 C 90 % 1023,0 hPa 0,0 l/m 0 min 0 min 76 W/m 14,6 km/h (3 Bft)
26.09.2014 09:38 13,9 C 13,3 C 90 % 1023,0 hPa 0,0 l/m 0 min 0 min 72 W/m 16,7 km/h (3 Bft)
26.09.2014 09:40 14,0 C 13,3 C 90 % 1023,0 hPa 0,0 l/m 0 min 0 min 77 W/m 20,9 km/h (4 Bft)
26.09.2014 09:42 14,0 C 12,8 C 90 % 1023,1 hPa 0,0 l/m 0 min 0 min 79 W/m 27,2 km/h (4 Bft)
26.09.2014 09:44 14,0 C 13,3 C 89 % 1023,1 hPa 0,0 l/m 0 min 0 min 80 W/m 29,3 km/h (5 Bft)
26.09.2014 09:46 14,1 C 13,3 C 89 % 1023,1 hPa 0,0 l/m 0 min 0 min 82 W/m 20,9 km/h (4 Bft)
26.09.2014 09:48 14,1 C 13,3 C 89 % 1023,1 hPa 0,0 l/m 0 min 0 min 82 W/m 23,0 km/h (4 Bft)
26.09.2014 09:50 14,1 C 13,3 C 89 % 1023,1 hPa 0,0 l/m 0 min 0 min 82 W/m 16,7 km/h (3 Bft)
26.09.2014 09:52 14,1 C 13,3 C 89 % 1023,1 hPa 0,0 l/m 0 min 0 min 83 W/m 12,6 km/h (3 Bft)
26.09.2014 09:54 14,2 C 13,3 C 89 % 1023,1 hPa 0,0 l/m 0 min 0 min 83 W/m 23,0 km/h (4 Bft)
26.09.2014 09:56 14,2 C 13,3 C 89 % 1023,1 hPa 0,0 l/m 0 min 0 min 83 W/m 20,9 km/h (4 Bft)
26.09.2014 09:58 14,2 C 13,3 C 89 % 1023,1 hPa 0,0 l/m 0 min 0 min 78 W/m 18,8 km/h (3 Bft)
26.09.2014 10:00 14,2 C 13,3 C 89 % 1023,1 hPa 0,0 l/m 0 min 0 min 78 W/m 16,7 km/h (3 Bft)
26.09.2014 10:02 14,2 C 13,3 C 89 % 1023,1 hPa 0,0 l/m 0 min 0 min 88 W/m 23,0 km/h (4 Bft)
26.09.2014 10:04 14,2 C 13,3 C 89 % 1023,1 hPa 0,0 l/m 0 min 0 min 95 W/m 16,7 km/h (3 Bft)
26.09.2014 10:06 14,2 C 13,3 C 89 % 1023,1 hPa 0,0 l/m 0 min 0 min 98 W/m 23,0 km/h (4 Bft)
26.09.2014 10:08 14,2 C 13,3 C 89 % 1023,2 hPa 0,0 l/m 0 min 0 min 98 W/m 23,0 km/h (4 Bft)
26.09.2014 10:10 14,2 C 13,3 C 89 % 1023,2 hPa 0,0 l/m 0 min 0 min 91 W/m 20,9 km/h (4 Bft)
26.09.2014 10:12 14,2 C 13,3 C 89 % 1023,2 hPa 0,0 l/m 0 min 0 min 84 W/m 18,8 km/h (3 Bft)
26.09.2014 10:14 14,2 C 13,3 C 89 % 1023,2 hPa 0,0 l/m 0 min 0 min 91 W/m 20,9 km/h (4 Bft)
26.09.2014 10:16 14,2 C 13,3 C 89 % 1023,1 hPa 0,0 l/m 0 min 0 min 96 W/m 16,7 km/h (3 Bft)
26.09.2014 10:18 14,3 C 13,3 C 89 % 1023,2 hPa 0,0 l/m 0 min 0 min 102 W/m 23,0 km/h (4 Bft)
26.09.2014 10:20 14,3 C 13,3 C 89 % 1023,3 hPa 0,0 l/m 0 min 0 min 110 W/m 12,6 km/h (3 Bft)
26.09.2014 10:22 14,3 C 13,3 C 89 % 1023,3 hPa 0,0 l/m 0 min 0 min 108 W/m 16,7 km/h (3 Bft)
26.09.2014 10:24 14,4 C 13,3 C 89 % 1023,3 hPa 0,0 l/m 0 min 0 min 108 W/m 18,8 km/h (3 Bft)
26.09.2014 10:26 14,4 C 13,9 C 89 % 1023,3 hPa 0,0 l/m 0 min 0 min 108 W/m 16,7 km/h (3 Bft)
26.09.2014 10:28 14,4 C 13,9 C 89 % 1023,3 hPa 0,0 l/m 0 min 0 min 105 W/m 18,8 km/h (3 Bft)
26.09.2014 10:30 14,4 C 13,9 C 89 % 1023,3 hPa 0,0 l/m 0 min 0 min 112 W/m 23,0 km/h (4 Bft)
26.09.2014 10:32 14,4 C 13,9 C 89 % 1023,4 hPa 0,0 l/m 0 min 0 min 110 W/m 16,7 km/h (3 Bft)
26.09.2014 10:34 14,5 C 13,9 C 89 % 1023,4 hPa 0,0 l/m 0 min 0 min 110 W/m 20,9 km/h (4 Bft)
26.09.2014 10:36 14,5 C 13,9 C 89 % 1023,3 hPa 0,0 l/m 0 min 0 min 116 W/m 23,0 km/h (4 Bft)
26.09.2014 10:38 14,6 C 13,9 C 89 % 1023,3 hPa 0,0 l/m 0 min 0 min 116 W/m 18,8 km/h (3 Bft)
26.09.2014 10:40 14,6 C 13,9 C 89 % 1023,3 hPa 0,0 l/m 0 min 0 min 125 W/m 23,0 km/h (4 Bft)
26.09.2014 10:42 14,6 C 13,9 C 89 % 1023,3 hPa 0,0 l/m 0 min 0 min 129 W/m 16,7 km/h (3 Bft)
26.09.2014 10:44 14,6 C 13,9 C 89 % 1023,3 hPa 0,0 l/m 0 min 0 min 119 W/m 16,7 km/h (3 Bft)
26.09.2014 10:46 14,6 C 13,9 C 89 % 1023,3 hPa 0,0 l/m 0 min 0 min 120 W/m 20,9 km/h (4 Bft)
26.09.2014 10:48 14,7 C 13,9 C 89 % 1023,4 hPa 0,0 l/m 0 min 0 min 126 W/m 20,9 km/h (4 Bft)
26.09.2014 10:50 14,7 C 13,9 C 89 % 1023,4 hPa 0,0 l/m 0 min 0 min 124 W/m 14,6 km/h (3 Bft)
26.09.2014 10:52 14,7 C 13,9 C 89 % 1023,4 hPa 0,0 l/m 0 min 0 min 119 W/m 16,7 km/h (3 Bft)
26.09.2014 10:54 14,7 C 13,9 C 89 % 1023,3 hPa 0,0 l/m 0 min 0 min 118 W/m 16,7 km/h (3 Bft)
26.09.2014 10:56 14,7 C 13,9 C 89 % 1023,4 hPa 0,0 l/m 0 min 0 min 121 W/m 12,6 km/h (3 Bft)
26.09.2014 10:58 14,8 C 13,9 C 89 % 1023,3 hPa 0,0 l/m 0 min 0 min 124 W/m 14,6 km/h (3 Bft)
26.09.2014 11:00 14,8 C 13,9 C 89 % 1023,3 hPa 0,0 l/m 0 min 0 min 127 W/m 10,5 km/h (2 Bft)
26.09.2014 11:02 14,8 C 13,9 C 89 % 1023,4 hPa 0,0 l/m 0 min 0 min 132 W/m 18,8 km/h (3 Bft)
26.09.2014 11:04 14,9 C 13,9 C 89 % 1023,4 hPa 0,0 l/m 0 min 0 min 139 W/m 20,9 km/h (4 Bft)
26.09.2014 11:06 14,9 C 13,9 C 89 % 1023,4 hPa 0,0 l/m 0 min 0 min 138 W/m 18,8 km/h (3 Bft)
26.09.2014 11:08 14,9 C 14,4 C 89 % 1023,4 hPa 0,0 l/m 0 min 0 min 143 W/m 16,7 km/h (3 Bft)
26.09.2014 11:10 14,9 C 14,4 C 88 % 1023,4 hPa 0,0 l/m 0 min 0 min 154 W/m 23,0 km/h (4 Bft)
26.09.2014 11:12 15,0 C 14,4 C 88 % 1023,3 hPa 0,0 l/m 0 min 0 min 152 W/m 23,0 km/h (4 Bft)
26.09.2014 11:14 15,0 C 14,4 C 88 % 1023,4 hPa 0,0 l/m 0 min 0 min 144 W/m 23,0 km/h (4 Bft)
26.09.2014 11:16 15,1 C 14,4 C 88 % 1023,4 hPa 0,0 l/m 0 min 0 min 147 W/m 25,1 km/h (4 Bft)
26.09.2014 11:18 15,1 C 14,4 C 88 % 1023,3 hPa 0,0 l/m 0 min 0 min 152 W/m 16,7 km/h (3 Bft)
26.09.2014 11:20 15,1 C 14,4 C 88 % 1023,3 hPa 0,0 l/m 0 min 0 min 149 W/m 16,7 km/h (3 Bft)
26.09.2014 11:22 15,1 C 14,4 C 88 % 1023,4 hPa 0,0 l/m 0 min 0 min 142 W/m 18,8 km/h (3 Bft)
26.09.2014 11:24 15,2 C 14,4 C 88 % 1023,4 hPa 0,0 l/m 0 min 0 min 127 W/m 20,9 km/h (4 Bft)
26.09.2014 11:26 15,2 C 14,4 C 88 % 1023,4 hPa 0,0 l/m 0 min 0 min 123 W/m 10,5 km/h (2 Bft)
26.09.2014 11:28 15,2 C 14,4 C 88 % 1023,4 hPa 0,0 l/m 0 min 0 min 128 W/m 16,7 km/h (3 Bft)
26.09.2014 11:30 15,2 C 14,4 C 88 % 1023,4 hPa 0,0 l/m 0 min 0 min 127 W/m 14,6 km/h (3 Bft)
26.09.2014 11:32 15,3 C 14,4 C 88 % 1023,4 hPa 0,0 l/m 0 min 0 min 124 W/m 20,9 km/h (4 Bft)
26.09.2014 11:34 15,3 C 14,4 C 88 % 1023,4 hPa 0,0 l/m 0 min 0 min 120 W/m 16,7 km/h (3 Bft)
26.09.2014 11:36 15,3 C 14,4 C 88 % 1023,4 hPa 0,0 l/m 0 min 0 min 123 W/m 12,6 km/h (3 Bft)
26.09.2014 11:38 15,3 C 14,4 C 87 % 1023,4 hPa 0,0 l/m 0 min 0 min 133 W/m 10,5 km/h (2 Bft)
26.09.2014 11:40 15,3 C 14,4 C 87 % 1023,4 hPa 0,0 l/m 0 min 0 min 134 W/m 27,2 km/h (4 Bft)
26.09.2014 11:42 15,4 C 14,4 C 87 % 1023,4 hPa 0,0 l/m 0 min 0 min 134 W/m 18,8 km/h (3 Bft)
26.09.2014 11:44 15,4 C 14,4 C 87 % 1023,3 hPa 0,0 l/m 0 min 0 min 146 W/m 18,8 km/h (3 Bft)
26.09.2014 11:46 15,4 C 14,4 C 87 % 1023,3 hPa 0,0 l/m 0 min 0 min 160 W/m 12,6 km/h (3 Bft)
26.09.2014 11:48 15,4 C 14,4 C 87 % 1023,3 hPa 0,0 l/m 0 min 0 min 170 W/m 16,7 km/h (3 Bft)
26.09.2014 11:50 15,4 C 15,0 C 87 % 1023,4 hPa 0,0 l/m 0 min 0 min 177 W/m 20,9 km/h (4 Bft)
26.09.2014 11:52 15,5 C 15,0 C 87 % 1023,4 hPa 0,0 l/m 0 min 0 min 184 W/m 18,8 km/h (3 Bft)
26.09.2014 11:54 15,5 C 15,0 C 87 % 1023,4 hPa 0,0 l/m 0 min 0 min 202 W/m 10,5 km/h (2 Bft)
26.09.2014 11:56 15,6 C 15,0 C 87 % 1023,4 hPa 0,0 l/m 0 min 0 min 219 W/m 12,6 km/h (3 Bft)
26.09.2014 11:58 15,6 C 15,0 C 87 % 1023,4 hPa 0,0 l/m 0 min 0 min 226 W/m 16,7 km/h (3 Bft)
26.09.2014 12:00 15,7 C 15,0 C 87 % 1023,3 hPa 0,0 l/m 0 min 0 min 241 W/m 23,0 km/h (4 Bft)
26.09.2014 12:02 15,7 C 15,0 C 87 % 1023,4 hPa 0,0 l/m 0 min 0 min 263 W/m 20,9 km/h (4 Bft)
26.09.2014 12:05 15,8 C 15,6 C 86 % 1023,4 hPa 0,0 l/m 2 min 0 min 292 W/m 20,9 km/h (4 Bft)
26.09.2014 12:06 15,8 C 15,6 C 86 % 1023,4 hPa 0,0 l/m 1 min 0 min 326 W/m 12,6 km/h (3 Bft)
26.09.2014 12:08 15,9 C 15,6 C 86 % 1023,4 hPa 0,0 l/m 2 min 0 min 320 W/m 20,9 km/h (4 Bft)
26.09.2014 12:10 15,9 C 15,6 C 86 % 1023,4 hPa 0,0 l/m 2 min 0 min 291 W/m 25,1 km/h (4 Bft)
26.09.2014 12:12 16,1 C 16,1 C 86 % 1023,4 hPa 0,0 l/m 0 min 0 min 276 W/m 20,9 km/h (4 Bft)
26.09.2014 12:14 16,1 C 16,1 C 86 % 1023,4 hPa 0,0 l/m 0 min 0 min 270 W/m 20,9 km/h (4 Bft)
26.09.2014 12:16 16,2 C 16,1 C 86 % 1023,4 hPa 0,0 l/m 0 min 0 min 254 W/m 23,0 km/h (4 Bft)
26.09.2014 12:18 16,3 C 15,6 C 85 % 1023,4 hPa 0,0 l/m 0 min 0 min 242 W/m 20,9 km/h (4 Bft)
26.09.2014 12:20 16,3 C 15,6 C 85 % 1023,4 hPa 0,0 l/m 0 min 0 min 237 W/m 23,0 km/h (4 Bft)
26.09.2014 12:22 16,3 C 15,6 C 85 % 1023,4 hPa 0,0 l/m 0 min 0 min 253 W/m 20,9 km/h (4 Bft)
26.09.2014 12:24 16,4 C 16,1 C 84 % 1023,4 hPa 0,0 l/m 0 min 0 min 258 W/m 14,6 km/h (3 Bft)
26.09.2014 12:26 16,4 C 16,1 C 84 % 1023,5 hPa 0,0 l/m 0 min 0 min 241 W/m 18,8 km/h (3 Bft)
26.09.2014 12:28 16,4 C 16,1 C 84 % 1023,4 hPa 0,0 l/m 0 min 0 min 264 W/m 27,2 km/h (4 Bft)
26.09.2014 12:30 16,5 C 16,1 C 84 % 1023,5 hPa 0,0 l/m 2 min 0 min 292 W/m 23,0 km/h (4 Bft)
26.09.2014 12:32 16,6 C 16,1 C 84 % 1023,5 hPa 0,0 l/m 2 min 0 min 309 W/m 16,7 km/h (3 Bft)
26.09.2014 12:34 16,6 C 16,1 C 84 % 1023,4 hPa 0,0 l/m 2 min 0 min 324 W/m 23,0 km/h (4 Bft)
26.09.2014 12:36 16,7 C 16,1 C 84 % 1023,4 hPa 0,0 l/m 2 min 0 min 322 W/m 18,8 km/h (3 Bft)
26.09.2014 12:38 16,7 C 16,7 C 84 % 1023,4 hPa 0,0 l/m 2 min 0 min 354 W/m 12,6 km/h (3 Bft)
26.09.2014 12:40 16,8 C 16,7 C 84 % 1023,4 hPa 0,0 l/m 2 min 0 min 384 W/m 16,7 km/h (3 Bft)
26.09.2014 12:42 16,9 C 16,7 C 84 % 1023,4 hPa 0,0 l/m 2 min 0 min 338 W/m 16,7 km/h (3 Bft)
26.09.2014 12:44 16,9 C 16,7 C 84 % 1023,4 hPa 0,0 l/m 0 min 0 min 274 W/m 14,6 km/h (3 Bft)
26.09.2014 12:46 17,0 C 16,7 C 84 % 1023,4 hPa 0,0 l/m 0 min 0 min 258 W/m 23,0 km/h (4 Bft)
26.09.2014 12:48 17,0 C 16,7 C 83 % 1023,4 hPa 0,0 l/m 0 min 0 min 282 W/m 25,1 km/h (4 Bft)
26.09.2014 12:50 17,1 C 16,7 C 83 % 1023,4 hPa 0,0 l/m 2 min 0 min 317 W/m 23,0 km/h (4 Bft)
26.09.2014 12:52 17,1 C 16,7 C 82 % 1023,3 hPa 0,0 l/m 2 min 0 min 346 W/m 14,6 km/h (3 Bft)
26.09.2014 12:54 17,2 C 16,7 C 83 % 1023,4 hPa 0,0 l/m 2 min 0 min 413 W/m 14,6 km/h (3 Bft)
26.09.2014 12:56 17,3 C 16,7 C 83 % 1023,4 hPa 0,0 l/m 2 min 0 min 393 W/m 25,1 km/h (4 Bft)
26.09.2014 12:58 17,4 C 16,7 C 83 % 1023,4 hPa 0,0 l/m 2 min 0 min 402 W/m 29,3 km/h (5 Bft)
26.09.2014 13:00 17,4 C 16,7 C 82 % 1023,3 hPa 0,0 l/m 2 min 0 min 402 W/m 23,0 km/h (4 Bft)
26.09.2014 13:02 17,5 C 16,7 C 81 % 1023,3 hPa 0,0 l/m 2 min 0 min 355 W/m 18,8 km/h (3 Bft)
26.09.2014 13:04 17,6 C 16,7 C 82 % 1023,4 hPa 0,0 l/m 2 min 0 min 351 W/m 23,0 km/h (4 Bft)
26.09.2014 13:06 17,6 C 17,2 C 82 % 1023,4 hPa 0,0 l/m 2 min 0 min 394 W/m 18,8 km/h (3 Bft)
26.09.2014 13:08 17,7 C 17,2 C 81 % 1023,4 hPa 0,0 l/m 2 min 0 min 374 W/m 20,9 km/h (4 Bft)
26.09.2014 13:10 17,7 C 17,2 C 81 % 1023,3 hPa 0,0 l/m 2 min 0 min 314 W/m 18,8 km/h (3 Bft)
26.09.2014 13:12 17,8 C 17,2 C 81 % 1023,4 hPa 0,0 l/m 2 min 0 min 328 W/m 23,0 km/h (4 Bft)
26.09.2014 13:14 17,8 C 17,2 C 80 % 1023,4 hPa 0,0 l/m 2 min 0 min 401 W/m 25,1 km/h (4 Bft)
26.09.2014 13:16 17,8 C 17,2 C 81 % 1023,4 hPa 0,0 l/m 2 min 0 min 396 W/m 14,6 km/h (3 Bft)
26.09.2014 13:18 17,9 C 17,2 C 80 % 1023,4 hPa 0,0 l/m 2 min 0 min 361 W/m 16,7 km/h (3 Bft)
26.09.2014 13:20 17,9 C 17,2 C 80 % 1023,4 hPa 0,0 l/m 2 min 0 min 328 W/m 31,4 km/h (5 Bft)
26.09.2014 13:22 17,9 C 16,7 C 80 % 1023,4 hPa 0,0 l/m 0 min 0 min 274 W/m 33,5 km/h (5 Bft)
26.09.2014 13:24 17,9 C 16,7 C 80 % 1023,4 hPa 0,0 l/m 0 min 0 min 227 W/m 27,2 km/h (4 Bft)
26.09.2014 13:26 17,8 C 16,7 C 80 % 1023,4 hPa 0,0 l/m 0 min 0 min 241 W/m 31,4 km/h (5 Bft)
26.09.2014 13:28 17,8 C 16,7 C 80 % 1023,4 hPa 0,0 l/m 0 min 0 min 258 W/m 29,3 km/h (5 Bft)
26.09.2014 13:30 17,8 C 16,7 C 80 % 1023,4 hPa 0,0 l/m 0 min 0 min 269 W/m 31,4 km/h (5 Bft)
26.09.2014 13:32 17,8 C 16,7 C 80 % 1023,4 hPa 0,0 l/m 0 min 0 min 256 W/m 33,5 km/h (5 Bft)
26.09.2014 13:34 17,8 C 16,7 C 81 % 1023,4 hPa 0,0 l/m 0 min 0 min 273 W/m 18,8 km/h (3 Bft)
26.09.2014 13:36 17,8 C 16,7 C 81 % 1023,4 hPa 0,0 l/m 2 min 0 min 307 W/m 23,0 km/h (4 Bft)
26.09.2014 13:38 17,8 C 16,7 C 81 % 1023,5 hPa 0,0 l/m 0 min 0 min 279 W/m 23,0 km/h (4 Bft)
26.09.2014 13:40 17,8 C 16,1 C 82 % 1023,4 hPa 0,0 l/m 0 min 2 min 276 W/m 23,0 km/h (4 Bft)
26.09.2014 13:42 17,7 C 16,1 C 82 % 1023,5 hPa 0,0 l/m 0 min 2 min 262 W/m 20,9 km/h (4 Bft)
26.09.2014 13:44 17,7 C 16,1 C 83 % 1023,5 hPa 0,0 l/m 0 min 0 min 235 W/m 14,6 km/h (3 Bft)
26.09.2014 13:46 17,7 C 16,1 C 83 % 1023,5 hPa 0,0 l/m 0 min 0 min 222 W/m 18,8 km/h (3 Bft)
26.09.2014 13:48 17,7 C 16,1 C 83 % 1023,5 hPa 0,0 l/m 0 min 0 min 188 W/m 23,0 km/h (4 Bft)
26.09.2014 13:50 17,6 C 15,6 C 83 % 1023,4 hPa 0,0 l/m 0 min 0 min 161 W/m 25,1 km/h (4 Bft)
26.09.2014 13:52 17,5 C 15,6 C 83 % 1023,4 hPa 0,0 l/m 0 min 0 min 177 W/m 23,0 km/h (4 Bft)
26.09.2014 13:54 17,4 C 15,6 C 83 % 1023,4 hPa 0,0 l/m 0 min 0 min 188 W/m 20,9 km/h (4 Bft)
26.09.2014 13:56 17,4 C 15,6 C 84 % 1023,4 hPa 0,0 l/m 0 min 0 min 197 W/m 18,8 km/h (3 Bft)
26.09.2014 13:58 17,4 C 15,6 C 85 % 1023,4 hPa 0,0 l/m 0 min 2 min 201 W/m 25,1 km/h (4 Bft)
26.09.2014 14:00 17,3 C 15,6 C 84 % 1023,4 hPa 0,0 l/m 0 min 2 min 200 W/m 29,3 km/h (5 Bft)
26.09.2014 14:02 17,3 C 15,0 C 85 % 1023,4 hPa 0,0 l/m 0 min 2 min 214 W/m 18,8 km/h (3 Bft)
26.09.2014 14:04 17,3 C 15,6 C 86 % 1023,3 hPa 0,0 l/m 0 min 2 min 244 W/m 10,5 km/h (2 Bft)
26.09.2014 14:06 17,2 C 15,6 C 86 % 1023,4 hPa 0,0 l/m 0 min 0 min 236 W/m 12,6 km/h (3 Bft)
26.09.2014 14:08 17,2 C 15,6 C 86 % 1023,3 hPa 0,0 l/m 0 min 0 min 256 W/m 16,7 km/h (3 Bft)
26.09.2014 14:10 17,2 C 16,1 C 86 % 1023,4 hPa 0,0 l/m 0 min 0 min 286 W/m 16,7 km/h (3 Bft)
26.09.2014 14:12 17,2 C 16,1 C 86 % 1023,4 hPa 0,0 l/m 0 min 0 min 250 W/m 18,8 km/h (3 Bft)
26.09.2014 14:14 17,2 C 16,7 C 86 % 1023,3 hPa 0,0 l/m 0 min 0 min 262 W/m 18,8 km/h (3 Bft)
26.09.2014 14:16 17,2 C 16,7 C 86 % 1023,3 hPa 0,0 l/m 2 min 0 min 313 W/m 18,8 km/h (3 Bft)
26.09.2014 14:18 17,3 C 16,7 C 86 % 1023,3 hPa 0,0 l/m 2 min 0 min 297 W/m 20,9 km/h (4 Bft)
26.09.2014 14:20 17,3 C 16,7 C 86 % 1023,3 hPa 0,0 l/m 2 min 0 min 319 W/m 25,1 km/h (4 Bft)
26.09.2014 14:22 17,4 C 17,2 C 85 % 1023,3 hPa 0,0 l/m 2 min 0 min 326 W/m 29,3 km/h (5 Bft)
26.09.2014 14:24 17,4 C 17,2 C 85 % 1023,3 hPa 0,0 l/m 0 min 0 min 288 W/m 25,1 km/h (4 Bft)
26.09.2014 14:26 17,5 C 17,2 C 84 % 1023,3 hPa 0,0 l/m 0 min 0 min 249 W/m 33,5 km/h (5 Bft)
26.09.2014 14:28 17,6 C 16,7 C 84 % 1023,3 hPa 0,0 l/m 0 min 0 min 253 W/m 18,8 km/h (3 Bft)
26.09.2014 14:30 17,6 C 17,2 C 84 % 1023,3 hPa 0,0 l/m 0 min 0 min 262 W/m 18,8 km/h (3 Bft)
26.09.2014 14:32 17,7 C 17,2 C 83 % 1023,3 hPa 0,0 l/m 0 min 0 min 220 W/m 16,7 km/h (3 Bft)
26.09.2014 14:34 17,7 C 17,2 C 83 % 1023,3 hPa 0,0 l/m 0 min 0 min 196 W/m 23,0 km/h (4 Bft)
26.09.2014 14:36 17,8 C 16,7 C 83 % 1023,2 hPa 0,0 l/m 0 min 0 min 201 W/m 16,7 km/h (3 Bft)
26.09.2014 14:38 17,8 C 16,7 C 83 % 1023,2 hPa 0,0 l/m 0 min 0 min 200 W/m 16,7 km/h (3 Bft)
26.09.2014 14:40 17,8 C 16,7 C 83 % 1023,2 hPa 0,0 l/m 0 min 0 min 170 W/m 18,8 km/h (3 Bft)
26.09.2014 14:42 17,8 C 16,7 C 83 % 1023,2 hPa 0,0 l/m 0 min 0 min 147 W/m 16,7 km/h (3 Bft)
26.09.2014 14:44 17,8 C 16,7 C 83 % 1023,3 hPa 0,0 l/m 0 min 0 min 139 W/m 18,8 km/h (3 Bft)
26.09.2014 14:46 17,9 C 16,7 C 82 % 1023,2 hPa 0,0 l/m 0 min 0 min 146 W/m 10,5 km/h (2 Bft)
26.09.2014 14:48 17,9 C 16,7 C 82 % 1023,3 hPa 0,0 l/m 0 min 0 min 162 W/m 16,7 km/h (3 Bft)
26.09.2014 14:50 17,9 C 16,7 C 82 % 1023,2 hPa 0,0 l/m 0 min 0 min 166 W/m 20,9 km/h (4 Bft)
26.09.2014 14:52 17,9 C 16,7 C 82 % 1023,2 hPa 0,0 l/m 0 min 0 min 155 W/m 12,6 km/h (3 Bft)
26.09.2014 14:54 17,9 C 16,7 C 82 % 1023,2 hPa 0,0 l/m 0 min 0 min 153 W/m 18,8 km/h (3 Bft)
26.09.2014 14:56 17,9 C 16,7 C 82 % 1023,2 hPa 0,0 l/m 0 min 0 min 174 W/m 23,0 km/h (4 Bft)
26.09.2014 14:58 17,9 C 16,7 C 82 % 1023,2 hPa 0,0 l/m 0 min 0 min 186 W/m 18,8 km/h (3 Bft)
26.09.2014 15:00 17,9 C 16,7 C 82 % 1023,2 hPa 0,0 l/m 0 min 0 min 191 W/m 18,8 km/h (3 Bft)
26.09.2014 15:02 17,9 C 16,7 C 82 % 1023,2 hPa 0,0 l/m 0 min 0 min 179 W/m 16,7 km/h (3 Bft)
26.09.2014 15:04 17,9 C 16,7 C 82 % 1023,2 hPa 0,0 l/m 0 min 0 min 189 W/m 12,6 km/h (3 Bft)
26.09.2014 15:06 18,0 C 17,2 C 82 % 1023,1 hPa 0,0 l/m 0 min 0 min 217 W/m 20,9 km/h (4 Bft)
26.09.2014 15:08 18,0 C 17,2 C 82 % 1023,1 hPa 0,0 l/m 2 min 0 min 269 W/m 16,7 km/h (3 Bft)
26.09.2014 15:10 18,1 C 17,2 C 82 % 1023,1 hPa 0,0 l/m 2 min 0 min 279 W/m 18,8 km/h (3 Bft)
26.09.2014 15:12 18,1 C 17,2 C 82 % 1023,1 hPa 0,0 l/m 0 min 0 min 248 W/m 25,1 km/h (4 Bft)
26.09.2014 15:14 18,1 C 17,2 C 82 % 1023,0 hPa 0,0 l/m 0 min 0 min 230 W/m 25,1 km/h (4 Bft)
26.09.2014 15:16 18,1 C 17,2 C 82 % 1023,1 hPa 0,0 l/m 0 min 0 min 244 W/m 29,3 km/h (5 Bft)
26.09.2014 15:18 18,2 C 17,2 C 82 % 1023,1 hPa 0,0 l/m 0 min 0 min 228 W/m 18,8 km/h (3 Bft)
26.09.2014 15:20 18,2 C 17,2 C 82 % 1023,1 hPa 0,0 l/m 0 min 0 min 217 W/m 16,7 km/h (3 Bft)
26.09.2014 15:22 18,2 C 17,2 C 82 % 1023,1 hPa 0,0 l/m 0 min 0 min 220 W/m 31,4 km/h (5 Bft)
26.09.2014 15:24 18,2 C 17,2 C 82 % 1023,1 hPa 0,0 l/m 0 min 0 min 199 W/m 18,8 km/h (3 Bft)
26.09.2014 15:26 18,3 C 17,2 C 82 % 1023,2 hPa 0,0 l/m 0 min 0 min 197 W/m 20,9 km/h (4 Bft)
26.09.2014 15:28 18,3 C 17,2 C 82 % 1023,2 hPa 0,0 l/m 0 min 0 min 191 W/m 20,9 km/h (4 Bft)
26.09.2014 15:30 18,3 C 17,2 C 82 % 1023,2 hPa 0,0 l/m 0 min 0 min 190 W/m 23,0 km/h (4 Bft)
26.09.2014 15:32 18,3 C 17,2 C 82 % 1023,2 hPa 0,0 l/m 0 min 0 min 186 W/m 20,9 km/h (4 Bft)
26.09.2014 15:34 18,3 C 17,2 C 81 % 1023,2 hPa 0,0 l/m 0 min 0 min 153 W/m 16,7 km/h (3 Bft)
26.09.2014 15:36 18,3 C 16,7 C 81 % 1023,2 hPa 0,0 l/m 0 min 0 min 130 W/m 27,2 km/h (4 Bft)
26.09.2014 15:38 18,3 C 16,7 C 81 % 1023,3 hPa 0,0 l/m 0 min 0 min 123 W/m 14,6 km/h (3 Bft)
26.09.2014 15:40 18,3 C 16,7 C 81 % 1023,3 hPa 0,0 l/m 0 min 0 min 124 W/m 18,8 km/h (3 Bft)
26.09.2014 15:42 18,3 C 16,7 C 81 % 1023,2 hPa 0,0 l/m 0 min 0 min 119 W/m 23,0 km/h (4 Bft)
26.09.2014 15:44 18,3 C 16,7 C 81 % 1023,3 hPa 0,0 l/m 0 min 0 min 120 W/m 16,7 km/h (3 Bft)
26.09.2014 15:46 18,3 C 16,7 C 81 % 1023,2 hPa 0,0 l/m 0 min 0 min 128 W/m 14,6 km/h (3 Bft)
26.09.2014 15:48 18,2 C 16,7 C 82 % 1023,2 hPa 0,0 l/m 0 min 0 min 139 W/m 20,9 km/h (4 Bft)
26.09.2014 15:50 18,2 C 16,7 C 81 % 1023,3 hPa 0,0 l/m 0 min 0 min 120 W/m 16,7 km/h (3 Bft)
26.09.2014 15:52 18,2 C 16,7 C 81 % 1023,3 hPa 0,0 l/m 0 min 0 min 126 W/m 25,1 km/h (4 Bft)
26.09.2014 15:54 18,2 C 16,7 C 81 % 1023,3 hPa 0,0 l/m 0 min 0 min 119 W/m 25,1 km/h (4 Bft)
26.09.2014 15:56 18,2 C 16,7 C 81 % 1023,3 hPa 0,0 l/m 0 min 0 min 117 W/m 18,8 km/h (3 Bft)
26.09.2014 15:58 18,1 C 16,7 C 82 % 1023,3 hPa 0,0 l/m 0 min 0 min 105 W/m 14,6 km/h (3 Bft)
26.09.2014 16:00 18,1 C 16,1 C 82 % 1023,3 hPa 0,0 l/m 0 min 0 min 95 W/m 18,8 km/h (3 Bft)
26.09.2014 16:02 18,1 C 16,1 C 82 % 1023,3 hPa 0,0 l/m 0 min 0 min 86 W/m 16,7 km/h (3 Bft)
26.09.2014 16:04 18,1 C 16,1 C 82 % 1023,3 hPa 0,0 l/m 0 min 0 min 86 W/m 14,6 km/h (3 Bft)
26.09.2014 16:06 18,0 C 16,1 C 82 % 1023,4 hPa 0,0 l/m 0 min 0 min 97 W/m 10,5 km/h (2 Bft)
26.09.2014 16:08 18,0 C 16,7 C 82 % 1023,4 hPa 0,0 l/m 0 min 0 min 111 W/m 14,6 km/h (3 Bft)
26.09.2014 16:10 18,0 C 16,7 C 82 % 1023,4 hPa 0,0 l/m 0 min 0 min 105 W/m 29,3 km/h (5 Bft)
26.09.2014 16:12 17,9 C 16,1 C 82 % 1023,4 hPa 0,0 l/m 0 min 0 min 104 W/m 25,1 km/h (4 Bft)
26.09.2014 16:14 17,9 C 16,1 C 82 % 1023,4 hPa 0,0 l/m 0 min 0 min 112 W/m 27,2 km/h (4 Bft)
26.09.2014 16:16 17,9 C 16,7 C 83 % 1023,4 hPa 0,0 l/m 0 min 0 min 128 W/m 20,9 km/h (4 Bft)
26.09.2014 16:18 17,9 C 16,7 C 83 % 1023,4 hPa 0,0 l/m 0 min 0 min 128 W/m 23,0 km/h (4 Bft)
26.09.2014 16:20 17,9 C 16,7 C 83 % 1023,4 hPa 0,0 l/m 0 min 0 min 127 W/m 18,8 km/h (3 Bft)
26.09.2014 16:22 17,8 C 16,7 C 84 % 1023,4 hPa 0,0 l/m 0 min 0 min 129 W/m 16,7 km/h (3 Bft)
26.09.2014 16:24 17,8 C 16,1 C 84 % 1023,4 hPa 0,0 l/m 0 min 0 min 110 W/m 16,7 km/h (3 Bft)
26.09.2014 16:26 17,8 C 16,1 C 84 % 1023,4 hPa 0,0 l/m 0 min 0 min 115 W/m 16,7 km/h (3 Bft)
26.09.2014 16:28 17,8 C 16,7 C 84 % 1023,4 hPa 0,0 l/m 0 min 0 min 113 W/m 12,6 km/h (3 Bft)
26.09.2014 16:30 17,8 C 16,7 C 84 % 1023,4 hPa 0,0 l/m 0 min 0 min 121 W/m 10,5 km/h (2 Bft)
26.09.2014 16:32 17,8 C 16,7 C 84 % 1023,4 hPa 0,0 l/m 0 min 0 min 122 W/m 10,5 km/h (2 Bft)
26.09.2014 16:34 17,8 C 16,7 C 85 % 1023,5 hPa 0,0 l/m 0 min 0 min 115 W/m 25,1 km/h (4 Bft)
26.09.2014 16:36 17,8 C 16,1 C 85 % 1023,4 hPa 0,0 l/m 0 min 0 min 123 W/m 20,9 km/h (4 Bft)
26.09.2014 16:38 17,8 C 16,1 C 85 % 1023,4 hPa 0,0 l/m 0 min 0 min 134 W/m 20,9 km/h (4 Bft)
26.09.2014 16:40 17,8 C 16,1 C 85 % 1023,4 hPa 0,0 l/m 0 min 0 min 141 W/m 14,6 km/h (3 Bft)
26.09.2014 16:42 17,8 C 16,1 C 85 % 1023,4 hPa 0,0 l/m 0 min 0 min 177 W/m 23,0 km/h (4 Bft)
26.09.2014 16:44 17,8 C 16,1 C 85 % 1023,4 hPa 0,0 l/m 2 min 0 min 201 W/m 20,9 km/h (4 Bft)
26.09.2014 16:46 17,8 C 16,1 C 86 % 1023,4 hPa 0,0 l/m 0 min 0 min 165 W/m 16,7 km/h (3 Bft)
26.09.2014 16:48 17,7 C 16,1 C 86 % 1023,5 hPa 0,0 l/m 0 min 0 min 111 W/m 20,9 km/h (4 Bft)
26.09.2014 16:50 17,7 C 16,1 C 86 % 1023,5 hPa 0,0 l/m 0 min 0 min 93 W/m 16,7 km/h (3 Bft)
26.09.2014 16:52 17,7 C 16,1 C 86 % 1023,5 hPa 0,0 l/m 0 min 0 min 83 W/m 20,9 km/h (4 Bft)
26.09.2014 16:54 17,7 C 16,1 C 86 % 1023,5 hPa 0,0 l/m 0 min 0 min 82 W/m 20,9 km/h (4 Bft)
26.09.2014 16:56 17,6 C 15,6 C 87 % 1023,5 hPa 0,0 l/m 0 min 0 min 92 W/m 20,9 km/h (4 Bft)
26.09.2014 16:58 17,6 C 15,6 C 87 % 1023,4 hPa 0,0 l/m 0 min 0 min 84 W/m 18,8 km/h (3 Bft)
26.09.2014 17:00 17,6 C 15,6 C 87 % 1023,5 hPa 0,0 l/m 0 min 0 min 70 W/m 10,5 km/h (2 Bft)
26.09.2014 17:02 17,6 C 15,6 C 87 % 1023,5 hPa 0,0 l/m 0 min 0 min 67 W/m 16,7 km/h (3 Bft)
26.09.2014 17:04 17,5 C 15,0 C 87 % 1023,5 hPa 0,0 l/m 0 min 0 min 67 W/m 18,8 km/h (3 Bft)
26.09.2014 17:06 17,5 C 15,0 C 88 % 1023,5 hPa 0,0 l/m 0 min 0 min 66 W/m 18,8 km/h (3 Bft)
26.09.2014 17:08 17,4 C 15,0 C 88 % 1023,5 hPa 0,0 l/m 0 min 0 min 64 W/m 18,8 km/h (3 Bft)
26.09.2014 17:10 17,4 C 15,0 C 88 % 1023,5 hPa 0,0 l/m 0 min 0 min 53 W/m 20,9 km/h (4 Bft)
26.09.2014 17:12 17,3 C 15,0 C 88 % 1023,6 hPa 0,0 l/m 0 min 0 min 44 W/m 14,6 km/h (3 Bft)
26.09.2014 17:14 17,3 C 15,0 C 88 % 1023,5 hPa 0,0 l/m 0 min 0 min 37 W/m 8,4 km/h (2 Bft)
26.09.2014 17:16 17,2 C 15,0 C 88 % 1023,6 hPa 0,0 l/m 0 min 0 min 31 W/m 10,5 km/h (2 Bft)
26.09.2014 17:18 17,2 C 15,0 C 88 % 1023,7 hPa 0,0 l/m 0 min 0 min 33 W/m 18,8 km/h (3 Bft)
26.09.2014 17:20 17,2 C 15,0 C 88 % 1023,6 hPa 0,0 l/m 0 min 2 min 30 W/m 14,6 km/h (3 Bft)
26.09.2014 17:22 17,2 C 15,0 C 89 % 1023,7 hPa 0,0 l/m 0 min 0 min 26 W/m 18,8 km/h (3 Bft)
26.09.2014 17:24 17,1 C 15,0 C 89 % 1023,7 hPa 0,0 l/m 0 min 0 min 35 W/m 10,5 km/h (2 Bft)
26.09.2014 17:26 17,1 C 15,0 C 89 % 1023,8 hPa 0,0 l/m 0 min 2 min 36 W/m 16,7 km/h (3 Bft)
26.09.2014 17:28 17,1 C 14,4 C 89 % 1023,8 hPa 0,0 l/m 0 min 2 min 30 W/m 18,8 km/h (3 Bft)
26.09.2014 17:30 17,0 C 14,4 C 90 % 1023,8 hPa 0,0 l/m 0 min 2 min 26 W/m 18,8 km/h (3 Bft)
26.09.2014 17:32 17,0 C 14,4 C 90 % 1023,8 hPa 0,0 l/m 0 min 2 min 25 W/m 14,6 km/h (3 Bft)
26.09.2014 17:34 16,9 C 14,4 C 90 % 1023,9 hPa 0,0 l/m 0 min 0 min 25 W/m 14,6 km/h (3 Bft)
26.09.2014 17:36 16,9 C 14,4 C 90 % 1023,8 hPa 0,0 l/m 0 min 0 min 27 W/m 10,5 km/h (2 Bft)
26.09.2014 17:38 16,9 C 14,4 C 90 % 1023,8 hPa 0,0 l/m 0 min 0 min 29 W/m 14,6 km/h (3 Bft)
26.09.2014 17:40 16,9 C 14,4 C 91 % 1023,9 hPa 0,0 l/m 0 min 0 min 29 W/m 10,5 km/h (2 Bft)
26.09.2014 17:42 16,8 C 14,4 C 91 % 1023,9 hPa 0,0 l/m 0 min 0 min 26 W/m 10,5 km/h (2 Bft)
26.09.2014 17:44 16,8 C 14,4 C 91 % 1023,9 hPa 0,0 l/m 0 min 0 min 30 W/m 14,6 km/h (3 Bft)
26.09.2014 17:46 16,8 C 14,4 C 91 % 1023,9 hPa 0,0 l/m 0 min 0 min 30 W/m 14,6 km/h (3 Bft)
26.09.2014 17:48 16,7 C 14,4 C 91 % 1024,0 hPa 0,0 l/m 0 min 0 min 33 W/m 14,6 km/h (3 Bft)
26.09.2014 17:50 16,7 C 14,4 C 91 % 1024,0 hPa 0,0 l/m 0 min 0 min 33 W/m 14,6 km/h (3 Bft)
26.09.2014 17:52 16,7 C 14,4 C 91 % 1024,0 hPa 0,0 l/m 0 min 0 min 37 W/m 8,4 km/h (2 Bft)
26.09.2014 17:54 16,7 C 14,4 C 92 % 1024,0 hPa 0,0 l/m 0 min 0 min 40 W/m 8,4 km/h (2 Bft)
26.09.2014 17:56 16,7 C 14,4 C 92 % 1024,0 hPa 0,0 l/m 0 min 0 min 42 W/m 10,5 km/h (2 Bft)
26.09.2014 17:58 16,7 C 14,4 C 92 % 1024,0 hPa 0,0 l/m 0 min 0 min 40 W/m 10,5 km/h (2 Bft)
26.09.2014 18:00 16,6 C 14,4 C 92 % 1024,0 hPa 0,0 l/m 0 min 0 min 35 W/m 12,6 km/h (3 Bft)
26.09.2014 18:02 16,6 C 14,4 C 92 % 1024,0 hPa 0,0 l/m 0 min 0 min 27 W/m 12,6 km/h (3 Bft)
26.09.2014 18:05 16,6 C 14,4 C 92 % 1024,0 hPa 0,0 l/m 0 min 0 min 29 W/m 14,6 km/h (3 Bft)
26.09.2014 18:06 16,6 C 14,4 C 93 % 1024,0 hPa 0,0 l/m 0 min 0 min 35 W/m 10,5 km/h (2 Bft)
26.09.2014 18:08 16,6 C 14,4 C 93 % 1024,0 hPa 0,0 l/m 0 min 0 min 41 W/m 16,7 km/h (3 Bft)
26.09.2014 18:10 16,6 C 14,4 C 93 % 1024,0 hPa 0,0 l/m 0 min 0 min 43 W/m 12,6 km/h (3 Bft)
26.09.2014 18:12 16,6 C 14,4 C 93 % 1024,0 hPa 0,0 l/m 0 min 0 min 45 W/m 12,6 km/h (3 Bft)
26.09.2014 18:14 16,5 C 14,4 C 93 % 1024,0 hPa 0,0 l/m 0 min 0 min 43 W/m 10,5 km/h (2 Bft)
26.09.2014 18:16 16,5 C 14,4 C 93 % 1023,9 hPa 0,0 l/m 0 min 0 min 38 W/m 10,5 km/h (2 Bft)
26.09.2014 18:18 16,5 C 14,4 C 93 % 1024,0 hPa 0,0 l/m 0 min 0 min 34 W/m 12,6 km/h (3 Bft)
26.09.2014 18:20 16,5 C 14,4 C 93 % 1024,0 hPa 0,0 l/m 0 min 0 min 36 W/m 10,5 km/h (2 Bft)
26.09.2014 18:22 16,5 C 14,4 C 93 % 1023,9 hPa 0,0 l/m 0 min 0 min 39 W/m 12,6 km/h (3 Bft)
26.09.2014 18:24 16,5 C 14,4 C 93 % 1024,0 hPa 0,0 l/m 0 min 0 min 36 W/m 10,5 km/h (2 Bft)
26.09.2014 18:26 16,4 C 14,4 C 93 % 1024,0 hPa 0,0 l/m 0 min 0 min 33 W/m 10,5 km/h (2 Bft)
26.09.2014 18:28 16,4 C 14,4 C 93 % 1024,0 hPa 0,0 l/m 0 min 0 min 32 W/m 10,5 km/h (2 Bft)
26.09.2014 18:30 16,4 C 14,4 C 93 % 1024,0 hPa 0,0 l/m 0 min 0 min 33 W/m 12,6 km/h (3 Bft)
26.09.2014 18:32 16,4 C 14,4 C 93 % 1024,1 hPa 0,0 l/m 0 min 0 min 39 W/m 10,5 km/h (2 Bft)
26.09.2014 18:34 16,4 C 14,4 C 93 % 1024,1 hPa 0,0 l/m 0 min 0 min 40 W/m 8,4 km/h (2 Bft)
26.09.2014 18:36 16,4 C 14,4 C 94 % 1024,0 hPa 0,0 l/m 0 min 0 min 37 W/m 8,4 km/h (2 Bft)
26.09.2014 18:38 16,4 C 14,4 C 94 % 1024,1 hPa 0,0 l/m 0 min 0 min 33 W/m 8,4 km/h (2 Bft)
26.09.2014 18:40 16,4 C 14,4 C 94 % 1024,0 hPa 0,0 l/m 0 min 0 min 33 W/m 8,4 km/h (2 Bft)
26.09.2014 18:42 16,4 C 14,4 C 94 % 1024,0 hPa 0,0 l/m 0 min 0 min 33 W/m 6,3 km/h (2 Bft)
26.09.2014 18:44 16,4 C 14,4 C 94 % 1024,0 hPa 0,0 l/m 0 min 0 min 32 W/m 10,5 km/h (2 Bft)
26.09.2014 18:46 16,4 C 14,4 C 94 % 1024,0 hPa 0,0 l/m 0 min 0 min 30 W/m 8,4 km/h (2 Bft)
26.09.2014 18:48 16,4 C 14,4 C 94 % 1024,0 hPa 0,0 l/m 0 min 0 min 26 W/m 10,5 km/h (2 Bft)
26.09.2014 18:50 16,4 C 14,4 C 94 % 1024,0 hPa 0,0 l/m 0 min 0 min 26 W/m 10,5 km/h (2 Bft)
26.09.2014 18:52 16,4 C 14,4 C 94 % 1024,1 hPa 0,0 l/m 0 min 0 min 25 W/m 12,6 km/h (3 Bft)
26.09.2014 18:54 16,4 C 14,4 C 94 % 1024,0 hPa 0,0 l/m 0 min 0 min 23 W/m 10,5 km/h (2 Bft)
26.09.2014 18:56 16,4 C 14,4 C 94 % 1024,0 hPa 0,0 l/m 0 min 0 min 19 W/m 10,5 km/h (2 Bft)
26.09.2014 18:58 16,4 C 14,4 C 94 % 1024,1 hPa 0,0 l/m 0 min 0 min 16 W/m 8,4 km/h (2 Bft)
26.09.2014 19:00 16,4 C 14,4 C 94 % 1024,1 hPa 0,0 l/m 0 min 0 min 13 W/m 10,5 km/h (2 Bft)
26.09.2014 19:02 16,4 C 14,4 C 94 % 1024,2 hPa 0,0 l/m 0 min 0 min 12 W/m 12,6 km/h (3 Bft)
26.09.2014 19:04 16,3 C 14,4 C 94 % 1024,2 hPa 0,0 l/m 0 min 0 min 11 W/m 8,4 km/h (2 Bft)
26.09.2014 19:06 16,3 C 14,4 C 94 % 1024,1 hPa 0,0 l/m 0 min 0 min 9 W/m 8,4 km/h (2 Bft)
26.09.2014 19:08 16,3 C 14,4 C 94 % 1024,1 hPa 0,0 l/m 0 min 0 min 6 W/m 12,6 km/h (3 Bft)
26.09.2014 19:10 16,3 C 14,4 C 94 % 1024,2 hPa 0,0 l/m 0 min 0 min 4 W/m 10,5 km/h (2 Bft)
26.09.2014 19:12 16,3 C 14,4 C 94 % 1024,1 hPa 0,0 l/m 0 min 0 min 0 W/m 10,5 km/h (2 Bft)
26.09.2014 19:14 16,3 C 14,4 C 94 % 1024,1 hPa 0,0 l/m 0 min 0 min 3 W/m 8,4 km/h (2 Bft)
26.09.2014 19:16 16,3 C 14,4 C 94 % 1024,1 hPa 0,0 l/m 0 min 0 min 5 W/m 12,6 km/h (3 Bft)
26.09.2014 19:18 16,3 C 14,4 C 94 % 1024,1 hPa 0,0 l/m 0 min 0 min 5 W/m 10,5 km/h (2 Bft)
26.09.2014 19:20 16,3 C 14,4 C 94 % 1024,1 hPa 0,0 l/m 0 min 0 min 2 W/m 10,5 km/h (2 Bft)
26.09.2014 19:22 16,3 C 14,4 C 94 % 1024,1 hPa 0,0 l/m 0 min 0 min 0 W/m 8,4 km/h (2 Bft)
26.09.2014 19:24 16,3 C 14,4 C 94 % 1024,2 hPa 0,0 l/m 0 min 0 min 0 W/m 10,5 km/h (2 Bft)
26.09.2014 19:26 16,2 C 14,4 C 94 % 1024,1 hPa 0,0 l/m 0 min 0 min 0 W/m 10,5 km/h (2 Bft)
26.09.2014 19:28 16,2 C 14,4 C 94 % 1024,1 hPa 0,0 l/m 0 min 0 min 0 W/m 10,5 km/h (2 Bft)
26.09.2014 19:30 16,2 C 14,4 C 94 % 1024,1 hPa 0,0 l/m 0 min 0 min 0 W/m 10,5 km/h (2 Bft)
26.09.2014 19:32 16,2 C 14,4 C 94 % 1024,1 hPa 0,0 l/m 0 min 0 min 0 W/m 10,5 km/h (2 Bft)
26.09.2014 19:34 16,2 C 14,4 C 94 % 1024,1 hPa 0,0 l/m 0 min 0 min 0 W/m 10,5 km/h (2 Bft)
26.09.2014 19:36 16,2 C 14,4 C 94 % 1024,1 hPa 0,0 l/m 0 min 0 min 0 W/m 8,4 km/h (2 Bft)
26.09.2014 19:38 16,2 C 14,4 C 94 % 1024,2 hPa 0,0 l/m 0 min 0 min 0 W/m 8,4 km/h (2 Bft)
26.09.2014 19:40 16,2 C 14,4 C 94 % 1024,2 hPa 0,0 l/m 0 min 0 min 0 W/m 8,4 km/h (2 Bft)
26.09.2014 19:42 16,2 C 14,4 C 94 % 1024,2 hPa 0,0 l/m 0 min 0 min 0 W/m 10,5 km/h (2 Bft)
26.09.2014 19:44 16,2 C 14,4 C 94 % 1024,2 hPa 0,0 l/m 0 min 0 min 0 W/m 6,3 km/h (2 Bft)
26.09.2014 19:46 16,2 C 14,4 C 94 % 1024,3 hPa 0,0 l/m 0 min 0 min 0 W/m 8,4 km/h (2 Bft)
26.09.2014 19:48 16,2 C 14,4 C 94 % 1024,3 hPa 0,0 l/m 0 min 0 min 0 W/m 4,2 km/h (1 Bft)
26.09.2014 19:50 16,2 C 14,4 C 94 % 1024,3 hPa 0,0 l/m 0 min 0 min 0 W/m 6,3 km/h (2 Bft)
26.09.2014 19:52 16,2 C 14,4 C 94 % 1024,3 hPa 0,0 l/m 0 min 0 min 0 W/m 8,4 km/h (2 Bft)
26.09.2014 19:54 16,2 C 14,4 C 94 % 1024,2 hPa 0,0 l/m 0 min 0 min 0 W/m 10,5 km/h (2 Bft)
26.09.2014 19:56 16,2 C 14,4 C 94 % 1024,2 hPa 0,0 l/m 0 min 0 min 0 W/m 8,4 km/h (2 Bft)
26.09.2014 19:58 16,2 C 14,4 C 94 % 1024,3 hPa 0,0 l/m 0 min 0 min 0 W/m 6,3 km/h (2 Bft)
26.09.2014 20:00 16,2 C 14,4 C 94 % 1024,3 hPa 0,0 l/m 0 min 0 min 0 W/m 10,5 km/h (2 Bft)
26.09.2014 20:02 16,2 C 14,4 C 94 % 1024,3 hPa 0,0 l/m 0 min 0 min 0 W/m 6,3 km/h (2 Bft)
26.09.2014 20:04 16,2 C 14,4 C 94 % 1024,4 hPa 0,0 l/m 0 min 0 min 0 W/m 8,4 km/h (2 Bft)
26.09.2014 20:06 16,2 C 14,4 C 94 % 1024,4 hPa 0,0 l/m 0 min 0 min 0 W/m 8,4 km/h (2 Bft)
26.09.2014 20:08 16,1 C 14,4 C 94 % 1024,5 hPa 0,0 l/m 0 min 0 min 0 W/m 6,3 km/h (2 Bft)
26.09.2014 20:10 16,1 C 14,4 C 94 % 1024,5 hPa 0,0 l/m 0 min 0 min 0 W/m 10,5 km/h (2 Bft)
26.09.2014 20:12 16,1 C 14,4 C 94 % 1024,4 hPa 0,0 l/m 0 min 0 min 0 W/m 8,4 km/h (2 Bft)
26.09.2014 20:14 16,1 C 14,4 C 94 % 1024,4 hPa 0,0 l/m 0 min 0 min 0 W/m 8,4 km/h (2 Bft)
26.09.2014 20:16 16,1 C 14,4 C 95 % 1024,5 hPa 0,0 l/m 0 min 0 min 0 W/m 10,5 km/h (2 Bft)
26.09.2014 20:18 16,1 C 14,4 C 95 % 1024,5 hPa 0,0 l/m 0 min 0 min 0 W/m 8,4 km/h (2 Bft)
26.09.2014 20:20 16,1 C 14,4 C 95 % 1024,6 hPa 0,0 l/m 0 min 0 min 0 W/m 6,3 km/h (2 Bft)
26.09.2014 20:22 16,1 C 14,4 C 95 % 1024,7 hPa 0,0 l/m 0 min 0 min 0 W/m 8,4 km/h (2 Bft)
26.09.2014 20:24 16,1 C 14,4 C 95 % 1024,7 hPa 0,0 l/m 0 min 0 min 0 W/m 8,4 km/h (2 Bft)
26.09.2014 20:26 16,1 C 14,4 C 95 % 1024,5 hPa 0,0 l/m 0 min 0 min 0 W/m 6,3 km/h (2 Bft)
26.09.2014 20:28 16,1 C 14,4 C 95 % 1024,6 hPa 0,0 l/m 0 min 0 min 0 W/m 6,3 km/h (2 Bft)
26.09.2014 20:30 16,1 C 14,4 C 95 % 1024,7 hPa 0,0 l/m 0 min 0 min 0 W/m 6,3 km/h (2 Bft)
26.09.2014 20:32 16,1 C 14,4 C 95 % 1024,7 hPa 0,0 l/m 0 min 0 min 0 W/m 4,2 km/h (1 Bft)
26.09.2014 20:34 16,1 C 14,4 C 95 % 1024,8 hPa 0,0 l/m 0 min 0 min 0 W/m 4,2 km/h (1 Bft)
26.09.2014 20:36 16,1 C 14,4 C 95 % 1024,8 hPa 0,0 l/m 0 min 0 min 0 W/m 8,4 km/h (2 Bft)
26.09.2014 20:38 16,1 C 14,4 C 95 % 1024,8 hPa 0,0 l/m 0 min 0 min 0 W/m 8,4 km/h (2 Bft)
26.09.2014 20:40 16,1 C 14,4 C 95 % 1024,8 hPa 0,0 l/m 0 min 0 min 0 W/m 8,4 km/h (2 Bft)
26.09.2014 20:42 16,0 C 14,4 C 95 % 1024,8 hPa 0,0 l/m 0 min 0 min 0 W/m 8,4 km/h (2 Bft)
26.09.2014 20:44 16,0 C 14,4 C 95 % 1024,9 hPa 0,0 l/m 0 min 0 min 0 W/m 8,4 km/h (2 Bft)
26.09.2014 20:46 16,0 C 14,4 C 95 % 1024,9 hPa 0,0 l/m 0 min 0 min 0 W/m 6,3 km/h (2 Bft)
26.09.2014 20:48 16,0 C 14,4 C 95 % 1024,9 hPa 0,0 l/m 0 min 0 min 0 W/m 8,4 km/h (2 Bft)
26.09.2014 20:50 16,0 C 14,4 C 95 % 1024,9 hPa 0,0 l/m 0 min 0 min 0 W/m 8,4 km/h (2 Bft)
26.09.2014 20:52 16,0 C 14,4 C 95 % 1024,9 hPa 0,0 l/m 0 min 0 min 0 W/m 6,3 km/h (2 Bft)
26.09.2014 20:54 16,0 C 14,4 C 95 % 1024,9 hPa 0,0 l/m 0 min 0 min 0 W/m 6,3 km/h (2 Bft)
26.09.2014 20:56 15,9 C 14,4 C 95 % 1025,0 hPa 0,0 l/m 0 min 0 min 0 W/m 10,5 km/h (2 Bft)
26.09.2014 20:58 15,9 C 14,4 C 95 % 1025,0 hPa 0,0 l/m 0 min 0 min 0 W/m 10,5 km/h (2 Bft)
26.09.2014 21:00 15,9 C 14,4 C 95 % 1025,0 hPa 0,0 l/m 0 min 0 min 0 W/m 8,4 km/h (2 Bft)
26.09.2014 21:02 15,9 C 14,4 C 95 % 1025,0 hPa 0,0 l/m 0 min 0 min 0 W/m 8,4 km/h (2 Bft)
26.09.2014 21:04 15,9 C 14,4 C 95 % 1025,1 hPa 0,0 l/m 0 min 2 min 0 W/m 8,4 km/h (2 Bft)
26.09.2014 21:06 15,9 C 14,4 C 95 % 1025,1 hPa 0,0 l/m 0 min 2 min 0 W/m 10,5 km/h (2 Bft)
26.09.2014 21:08 15,9 C 13,9 C 95 % 1025,1 hPa 0,0 l/m 0 min 2 min 0 W/m 8,4 km/h (2 Bft)
26.09.2014 21:10 15,9 C 13,9 C 95 % 1025,1 hPa 0,0 l/m 0 min 2 min 0 W/m 6,3 km/h (2 Bft)
26.09.2014 21:12 15,9 C 13,9 C 95 % 1025,1 hPa 0,0 l/m 0 min 2 min 0 W/m 8,4 km/h (2 Bft)
26.09.2014 21:14 15,9 C 13,9 C 95 % 1025,2 hPa 0,2 l/m 0 min 2 min 0 W/m 6,3 km/h (2 Bft)
26.09.2014 21:16 15,9 C 13,9 C 95 % 1025,3 hPa 0,0 l/m 0 min 2 min 0 W/m 6,3 km/h (2 Bft)
26.09.2014 21:18 15,9 C 13,9 C 95 % 1025,2 hPa 0,0 l/m 0 min 2 min 0 W/m 8,4 km/h (2 Bft)
26.09.2014 21:20 15,9 C 13,9 C 95 % 1025,2 hPa 0,2 l/m 0 min 2 min 0 W/m 8,4 km/h (2 Bft)
26.09.2014 21:22 15,9 C 13,9 C 95 % 1025,2 hPa 0,0 l/m 0 min 2 min 0 W/m 4,2 km/h (1 Bft)
26.09.2014 21:24 15,9 C 13,9 C 95 % 1025,2 hPa 0,0 l/m 0 min 2 min 0 W/m 4,2 km/h (1 Bft)
26.09.2014 21:26 15,9 C 13,9 C 95 % 1025,3 hPa 0,0 l/m 0 min 2 min 0 W/m 4,2 km/h (1 Bft)
26.09.2014 21:28 15,9 C 13,9 C 95 % 1025,3 hPa 0,0 l/m 0 min 2 min 0 W/m 4,2 km/h (1 Bft)
26.09.2014 21:30 15,9 C 13,9 C 95 % 1025,3 hPa 0,0 l/m 0 min 0 min 0 W/m 2,1 km/h (1 Bft)
26.09.2014 21:32 15,8 C 13,9 C 95 % 1025,3 hPa 0,0 l/m 0 min 0 min 0 W/m 4,2 km/h (1 Bft)
26.09.2014 21:34 15,8 C 13,9 C 95 % 1025,3 hPa 0,0 l/m 0 min 2 min 0 W/m 4,2 km/h (1 Bft)
26.09.2014 21:36 15,8 C 13,9 C 95 % 1025,3 hPa 0,0 l/m 0 min 2 min 0 W/m 6,3 km/h (2 Bft)
26.09.2014 21:38 15,8 C 13,9 C 95 % 1025,3 hPa 0,2 l/m 0 min 2 min 0 W/m 6,3 km/h (2 Bft)
26.09.2014 21:40 15,8 C 13,9 C 95 % 1025,2 hPa 0,0 l/m 0 min 2 min 0 W/m 8,4 km/h (2 Bft)
26.09.2014 21:42 15,8 C 13,9 C 95 % 1025,2 hPa 0,0 l/m 0 min 2 min 0 W/m 8,4 km/h (2 Bft)
26.09.2014 21:44 15,8 C 13,9 C 95 % 1025,2 hPa 0,0 l/m 0 min 2 min 0 W/m 6,3 km/h (2 Bft)
26.09.2014 21:46 15,8 C 13,9 C 95 % 1025,2 hPa 0,0 l/m 0 min 2 min 0 W/m 10,5 km/h (2 Bft)
26.09.2014 21:48 15,8 C 13,9 C 95 % 1025,3 hPa 0,0 l/m 0 min 0 min 0 W/m 12,6 km/h (3 Bft)
26.09.2014 21:50 15,8 C 13,9 C 95 % 1025,2 hPa 0,0 l/m 0 min 0 min 0 W/m 10,5 km/h (2 Bft)
26.09.2014 21:52 15,8 C 13,9 C 95 % 1025,2 hPa 0,0 l/m 0 min 0 min 0 W/m 8,4 km/h (2 Bft)
26.09.2014 21:54 15,7 C 13,9 C 95 % 1025,2 hPa 0,0 l/m 0 min 0 min 0 W/m 10,5 km/h (2 Bft)
26.09.2014 21:56 15,7 C 13,9 C 95 % 1025,1 hPa 0,0 l/m 0 min 0 min 0 W/m 12,6 km/h (3 Bft)
26.09.2014 21:58 15,7 C 13,9 C 95 % 1025,1 hPa 0,0 l/m 0 min 0 min 0 W/m 12,6 km/h (3 Bft)
26.09.2014 22:00 15,7 C 13,9 C 95 % 1025,2 hPa 0,0 l/m 0 min 0 min 0 W/m 8,4 km/h (2 Bft)
26.09.2014 22:02 15,7 C 13,9 C 95 % 1025,2 hPa 0,0 l/m 0 min 0 min 0 W/m 8,4 km/h (2 Bft)
26.09.2014 22:04 15,7 C 13,9 C 96 % 1025,2 hPa 0,0 l/m 0 min 0 min 0 W/m 10,5 km/h (2 Bft)
26.09.2014 22:06 15,7 C 13,9 C 96 % 1025,2 hPa 0,0 l/m 0 min 0 min 0 W/m 12,6 km/h (3 Bft)
26.09.2014 22:08 15,7 C 13,9 C 96 % 1025,2 hPa 0,0 l/m 0 min 0 min 0 W/m 10,5 km/h (2 Bft)
26.09.2014 22:10 15,6 C 13,9 C 96 % 1025,2 hPa 0,0 l/m 0 min 0 min 0 W/m 10,5 km/h (2 Bft)
26.09.2014 22:12 15,6 C 13,9 C 95 % 1025,2 hPa 0,0 l/m 0 min 0 min 0 W/m 12,6 km/h (3 Bft)
26.09.2014 22:14 15,6 C 13,9 C 95 % 1025,2 hPa 0,0 l/m 0 min 0 min 0 W/m 14,6 km/h (3 Bft)
26.09.2014 22:16 15,6 C 13,9 C 96 % 1025,2 hPa 0,0 l/m 0 min 0 min 0 W/m 10,5 km/h (2 Bft)
26.09.2014 22:18 15,6 C 13,9 C 96 % 1025,2 hPa 0,0 l/m 0 min 0 min 0 W/m 12,6 km/h (3 Bft)
26.09.2014 22:20 15,6 C 13,9 C 96 % 1025,2 hPa 0,0 l/m 0 min 0 min 0 W/m 10,5 km/h (2 Bft)
26.09.2014 22:22 15,6 C 13,9 C 96 % 1025,2 hPa 0,0 l/m 0 min 0 min 0 W/m 10,5 km/h (2 Bft)
26.09.2014 22:24 15,6 C 13,9 C 96 % 1025,3 hPa 0,0 l/m 0 min 0 min 0 W/m 12,6 km/h (3 Bft)
26.09.2014 22:26 15,6 C 13,9 C 96 % 1025,3 hPa 0,0 l/m 0 min 0 min 0 W/m 8,4 km/h (2 Bft)
26.09.2014 22:28 15,6 C 13,9 C 96 % 1025,3 hPa 0,0 l/m 0 min 0 min 0 W/m 14,6 km/h (3 Bft)
26.09.2014 22:30 15,5 C 13,9 C 96 % 1025,3 hPa 0,0 l/m 0 min 0 min 0 W/m 10,5 km/h (2 Bft)
26.09.2014 22:32 15,5 C 13,9 C 96 % 1025,3 hPa 0,0 l/m 0 min 0 min 0 W/m 12,6 km/h (3 Bft)
26.09.2014 22:34 15,5 C 13,9 C 96 % 1025,4 hPa 0,0 l/m 0 min 0 min 0 W/m 8,4 km/h (2 Bft)
26.09.2014 22:36 15,5 C 13,9 C 96 % 1025,5 hPa 0,0 l/m 0 min 0 min 0 W/m 8,4 km/h (2 Bft)
26.09.2014 22:38 15,5 C 13,9 C 96 % 1025,4 hPa 0,0 l/m 0 min 0 min 0 W/m 10,5 km/h (2 Bft)
26.09.2014 22:40 15,4 C 13,9 C 96 % 1025,4 hPa 0,0 l/m 0 min 0 min 0 W/m 8,4 km/h (2 Bft)
26.09.2014 22:42 15,4 C 13,9 C 96 % 1025,4 hPa 0,0 l/m 0 min 0 min 0 W/m 8,4 km/h (2 Bft)
26.09.2014 22:44 15,4 C 13,9 C 96 % 1025,4 hPa 0,0 l/m 0 min 0 min 0 W/m 12,6 km/h (3 Bft)
26.09.2014 22:46 15,4 C 13,9 C 96 % 1025,4 hPa 0,0 l/m 0 min 0 min 0 W/m 12,6 km/h (3 Bft)
26.09.2014 22:48 15,4 C 13,9 C 96 % 1025,5 hPa 0,0 l/m 0 min 0 min 0 W/m 16,7 km/h (3 Bft)
26.09.2014 22:50 15,4 C 13,9 C 96 % 1025,5 hPa 0,0 l/m 0 min 0 min 0 W/m 10,5 km/h (2 Bft)
26.09.2014 22:52 15,4 C 13,9 C 96 % 1025,5 hPa 0,0 l/m 0 min 0 min 0 W/m 14,6 km/h (3 Bft)
26.09.2014 22:54 15,4 C 13,9 C 96 % 1025,5 hPa 0,0 l/m 0 min 0 min 0 W/m 10,5 km/h (2 Bft)
26.09.2014 22:56 15,4 C 13,9 C 96 % 1025,6 hPa 0,0 l/m 0 min 0 min 0 W/m 12,6 km/h (3 Bft)
26.09.2014 22:58 15,4 C 13,9 C 96 % 1025,5 hPa 0,0 l/m 0 min 0 min 0 W/m 12,6 km/h (3 Bft)
26.09.2014 23:00 15,4 C 13,9 C 96 % 1025,5 hPa 0,0 l/m 0 min 0 min 0 W/m 10,5 km/h (2 Bft)
26.09.2014 23:02 15,3 C 13,9 C 96 % 1025,5 hPa 0,0 l/m 0 min 0 min 0 W/m 10,5 km/h (2 Bft)
26.09.2014 23:04 15,3 C 13,3 C 96 % 1025,6 hPa 0,0 l/m 0 min 0 min 0 W/m 6,3 km/h (2 Bft)
26.09.2014 23:06 15,3 C 13,3 C 96 % 1025,6 hPa 0,0 l/m 0 min 0 min 0 W/m 10,5 km/h (2 Bft)
26.09.2014 23:08 15,3 C 13,3 C 96 % 1025,6 hPa 0,0 l/m 0 min 0 min 0 W/m 8,4 km/h (2 Bft)
26.09.2014 23:10 15,3 C 13,3 C 96 % 1025,6 hPa 0,0 l/m 0 min 0 min 0 W/m 8,4 km/h (2 Bft)
26.09.2014 23:12 15,2 C 13,3 C 96 % 1025,7 hPa 0,0 l/m 0 min 0 min 0 W/m 10,5 km/h (2 Bft)
26.09.2014 23:14 15,2 C 13,3 C 96 % 1025,7 hPa 0,0 l/m 0 min 0 min 0 W/m 8,4 km/h (2 Bft)
26.09.2014 23:16 15,2 C 13,3 C 96 % 1025,6 hPa 0,0 l/m 0 min 0 min 0 W/m 8,4 km/h (2 Bft)
26.09.2014 23:18 15,2 C 13,3 C 96 % 1025,6 hPa 0,0 l/m 0 min 0 min 0 W/m 4,2 km/h (1 Bft)
26.09.2014 23:20 15,2 C 13,3 C 96 % 1025,6 hPa 0,0 l/m 0 min 0 min 0 W/m 10,5 km/h (2 Bft)
26.09.2014 23:22 15,1 C 13,3 C 96 % 1025,7 hPa 0,0 l/m 0 min 0 min 0 W/m 10,5 km/h (2 Bft)
26.09.2014 23:24 15,1 C 13,3 C 96 % 1025,8 hPa 0,0 l/m 0 min 0 min 0 W/m 8,4 km/h (2 Bft)
26.09.2014 23:26 15,1 C 13,3 C 96 % 1025,8 hPa 0,0 l/m 0 min 0 min 0 W/m 8,4 km/h (2 Bft)
26.09.2014 23:28 15,1 C 13,3 C 96 % 1025,8 hPa 0,0 l/m 0 min 0 min 0 W/m 8,4 km/h (2 Bft)
26.09.2014 23:30 15,1 C 13,3 C 96 % 1025,8 hPa 0,0 l/m 0 min 0 min 0 W/m 4,2 km/h (1 Bft)
26.09.2014 23:32 15,0 C 13,3 C 96 % 1025,8 hPa 0,0 l/m 0 min 0 min 0 W/m 8,4 km/h (2 Bft)
26.09.2014 23:34 15,0 C 13,3 C 97 % 1025,8 hPa 0,0 l/m 0 min 0 min 0 W/m 8,4 km/h (2 Bft)
26.09.2014 23:36 15,0 C 13,3 C 96 % 1025,9 hPa 0,0 l/m 0 min 0 min 0 W/m 8,4 km/h (2 Bft)
26.09.2014 23:38 15,0 C 13,3 C 96 % 1025,9 hPa 0,0 l/m 0 min 0 min 0 W/m 8,4 km/h (2 Bft)
26.09.2014 23:40 15,0 C 13,3 C 96 % 1025,8 hPa 0,0 l/m 0 min 0 min 0 W/m 8,4 km/h (2 Bft)
26.09.2014 23:42 15,0 C 13,3 C 96 % 1025,8 hPa 0,0 l/m 0 min 0 min 0 W/m 10,5 km/h (2 Bft)
26.09.2014 23:44 15,0 C 13,3 C 96 % 1025,8 hPa 0,0 l/m 0 min 0 min 0 W/m 6,3 km/h (2 Bft)
26.09.2014 23:46 15,0 C 13,3 C 96 % 1025,9 hPa 0,0 l/m 0 min 0 min 0 W/m 8,4 km/h (2 Bft)
26.09.2014 23:48 14,9 C 13,3 C 97 % 1025,9 hPa 0,0 l/m 0 min 0 min 0 W/m 8,4 km/h (2 Bft)
26.09.2014 23:50 15,0 C 13,3 C 97 % 1025,9 hPa 0,0 l/m 0 min 0 min 0 W/m 8,4 km/h (2 Bft)
26.09.2014 23:52 14,9 C 13,3 C 97 % 1025,9 hPa 0,0 l/m 0 min 0 min 0 W/m 4,2 km/h (1 Bft)
26.09.2014 23:54 15,0 C 13,3 C 97 % 1025,8 hPa 0,0 l/m 0 min 0 min 0 W/m 6,3 km/h (2 Bft)
26.09.2014 23:56 14,9 C 13,3 C 97 % 1025,8 hPa 0,0 l/m 0 min 0 min 0 W/m 6,3 km/h (2 Bft)
26.09.2014 23:58 15,0 C 13,3 C 97 % 1025,9 hPa 0,0 l/m 0 min 0 min 0 W/m 8,4 km/h (2 Bft)
_ Min-Zeit 01:50 01:36 13:14 05:42 - - - - 21:30
Minimum _ 12,7 C 11,1 C 80 % 1021,2 hPa - - - - 2,1 km/h (1 Bft)
_ Max-Zeit 15:26 13:06 23:34 23:36 21:14 12:05 13:40 12:54 13:22
Maximum _ 18,3 C 17,2 C 97 % 1025,9 hPa 0,2 l/m 2 min 2 min 413 W/m 33,5 km/h
W-SW (5 Bft)
Durchschnitt _ 15,2 C 13,8 C 89 % 1023,1 hPa #0,6 l/m #1:09 h #1:02 h 132 W/m 15,2 km/h (3 Bft)
© 2014 W. Hausmann